| time (UTC) | temp F | wind direction | speed MPH | gust MPH | rain 1hr in | rain 24hr in | rain mn in | humidity % | barometer mb |
| 20260510174203 | 58 | 11 | 3.0 | 6.0 | 0.00 | 0.27 | 0.04 | 85 | 1009.2 |
| 20260510174124 | 58 | 13 | 3.0 | 6.0 | 0.00 | 0.34 | 0.04 | 84 | 1009.2 |
| 20260510174003 | 58 | 12 | 3.0 | 6.0 | 0.00 | 0.38 | 0.04 | 84 | 1009.1 |
| 20260510173903 | 58 | 12 | 3.0 | 6.0 | 0.00 | 0.43 | 0.04 | 84 | 1009.3 |
| 20260510173802 | 58 | 16 | 3.0 | 6.0 | 0.00 | 0.49 | 0.04 | 84 | 1009.2 |
| 20260510173723 | 59 | 16 | 3.0 | 6.0 | 0.00 | 0.51 | 0.04 | 83 | 1009.1 |
| 20260510173624 | 59 | 17 | 2.0 | 6.0 | 0.00 | 0.51 | 0.04 | 83 | 1009.1 |
| 20260510173524 | 59 | 19 | 2.0 | 6.0 | 0.00 | 0.51 | 0.04 | 83 | 1009.2 |
| 20260510173402 | 59 | 19 | 2.0 | 6.0 | 0.00 | 0.51 | 0.04 | 83 | 1009.0 |
| 20260510173302 | 59 | 20 | 2.0 | 6.0 | 0.00 | 0.51 | 0.04 | 83 | 1009.0 |
| 20260510173202 | 59 | 20 | 2.0 | 4.0 | 0.00 | 0.51 | 0.04 | 84 | 1009.1 |
| 20260510173102 | 59 | 18 | 3.0 | 4.0 | 0.00 | 0.51 | 0.04 | 84 | 1008.9 |
| 20260510173002 | 58 | 21 | 2.0 | 4.0 | 0.00 | 0.51 | 0.04 | 84 | 1009.2 |
| 20260510172903 | 58 | 21 | 2.0 | 4.0 | 0.00 | 0.51 | 0.04 | 84 | 1009.2 |
| 20260510172823 | 58 | 21 | 2.0 | 4.0 | 0.00 | 0.51 | 0.04 | 84 | 1009.0 |
| 20260510172703 | 58 | 17 | 2.0 | 4.0 | 0.00 | 0.51 | 0.04 | 84 | 1009.0 |
| 20260510172624 | 58 | 18 | 2.0 | 4.0 | 0.00 | 0.51 | 0.04 | 84 | 1009.2 |
| 20260510172502 | 58 | 17 | 2.0 | 4.0 | 0.00 | 0.51 | 0.04 | 84 | 1009.1 |
| 20260510172403 | 58 | 14 | 3.0 | 7.0 | 0.00 | 0.51 | 0.04 | 84 | 1009.0 |
| 20260510172306 | 58 | 14 | 3.0 | 7.0 | 0.00 | 0.51 | 0.04 | 84 | 1009.1 |
| 20260510172224 | 58 | 9 | 3.0 | 7.0 | 0.00 | 0.51 | 0.04 | 84 | 1009.1 |
| 20260510172102 | 58 | 9 | 3.0 | 7.0 | 0.00 | 0.51 | 0.04 | 83 | 1009.2 |
| 20260510172024 | 58 | 10 | 2.0 | 7.0 | 0.00 | 0.51 | 0.04 | 84 | 1009.2 |
| 20260510171924 | 58 | 14 | 3.0 | 7.0 | 0.00 | 0.51 | 0.04 | 83 | 1009.0 |
| 20260510171803 | 58 | 13 | 3.0 | 7.0 | 0.00 | 0.51 | 0.04 | 83 | 1009.2 |
| 20260510171702 | 58 | 12 | 3.0 | 7.0 | 0.00 | 0.51 | 0.04 | 83 | 1009.0 |
| 20260510171602 | 58 | 11 | 3.0 | 7.0 | 0.00 | 0.51 | 0.04 | 83 | 1009.1 |
| 20260510171502 | 58 | 11 | 3.0 | 7.0 | 0.00 | 0.51 | 0.04 | 82 | 1009.1 |
| 20260510171402 | 58 | 11 | 3.0 | 6.0 | 0.00 | 0.51 | 0.04 | 82 | 1009.1 |
| 20260510171303 | 58 | 12 | 3.0 | 6.0 | 0.00 | 0.51 | 0.04 | 82 | 1009.1 |
| 20260510171202 | 58 | 12 | 3.0 | 6.0 | 0.00 | 0.51 | 0.04 | 82 | 1009.1 |
| 20260510171103 | 58 | 13 | 3.0 | 6.0 | 0.00 | 0.52 | 0.04 | 82 | 1009.1 |
| 20260510171002 | 58 | 13 | 3.0 | 6.0 | 0.00 | 0.53 | 0.04 | 82 | 1009.2 |
| 20260510170902 | 58 | 13 | 3.0 | 6.0 | 0.00 | 0.55 | 0.04 | 82 | 1009.1 |
| 20260510170803 | 58 | 10 | 3.0 | 6.0 | 0.00 | 0.57 | 0.04 | 81 | 1009.2 |
| 20260510170702 | 58 | 12 | 3.0 | 6.0 | 0.00 | 0.58 | 0.04 | 81 | 1009.0 |
| 20260510170603 | 58 | 13 | 3.0 | 6.0 | 0.00 | 0.58 | 0.04 | 81 | 1009.0 |
| 20260510170502 | 59 | 15 | 3.0 | 6.0 | 0.00 | 0.58 | 0.04 | 81 | 1009.1 |
| 20260510170402 | 59 | 14 | 3.0 | 8.0 | 0.00 | 0.58 | 0.04 | 81 | 1009.1 |
| 20260510170302 | 59 | 17 | 3.0 | 8.0 | 0.00 | 0.58 | 0.04 | 81 | 1009.2 |
| 20260510170203 | 59 | 18 | 2.0 | 8.0 | 0.00 | 0.58 | 0.04 | 81 | 1009.2 |
| 20260510170024 | 59 | 20 | 2.0 | 8.0 | 0.00 | 0.58 | 0.04 | 81 | 1009.3 |
| 20260510165903 | 59 | 25 | 2.0 | 8.0 | 0.00 | 0.58 | 0.04 | 81 | 1009.1 |
| 20260510165803 | 59 | 24 | 2.0 | 8.0 | 0.00 | 0.58 | 0.04 | 81 | 1009.1 |
| 20260510165724 | 59 | 24 | 2.0 | 8.0 | 0.00 | 0.58 | 0.04 | 81 | 1009.1 |
| 20260510165623 | 59 | 24 | 2.0 | 8.0 | 0.00 | 0.58 | 0.04 | 81 | 1009.3 |
| 20260510165503 | 59 | 26 | 2.0 | 8.0 | 0.00 | 0.58 | 0.04 | 81 | 1009.2 |
| 20260510165403 | 60 | 25 | 2.0 | 8.0 | 0.00 | 0.58 | 0.04 | 81 | 1009.2 |
| 20260510165305 | 60 | 30 | 2.0 | 4.0 | 0.00 | 0.58 | 0.04 | 81 | 1009.1 |
| 20260510165203 | 60 | 29 | 2.0 | 4.0 | 0.00 | 0.58 | 0.04 | 80 | 1009.2 |
| 20260510165103 | 60 | 31 | 2.0 | 4.0 | 0.00 | 0.58 | 0.04 | 80 | 1009.0 |
| 20260510165003 | 60 | 30 | 2.0 | 4.0 | 0.00 | 0.58 | 0.04 | 80 | 1009.0 |
| 20260510164903 | 60 | 28 | 2.0 | 4.0 | 0.00 | 0.58 | 0.04 | 80 | 1009.1 |
| 20260510164802 | 60 | 28 | 2.0 | 4.0 | 0.00 | 0.58 | 0.04 | 80 | 1009.1 |
| 20260510164702 | 60 | 31 | 2.0 | 4.0 | 0.00 | 0.58 | 0.04 | 80 | 1008.9 |
| 20260510164602 | 61 | 29 | 2.0 | 4.0 | 0.00 | 0.58 | 0.04 | 80 | 1009.0 |
| 20260510164503 | 61 | 29 | 2.0 | 4.0 | 0.00 | 0.58 | 0.04 | 79 | 1009.1 |
| 20260510164403 | 61 | 30 | 2.0 | 4.0 | 0.00 | 0.58 | 0.04 | 78 | 1009.2 |
| 20260510164303 | 62 | 32 | 2.0 | 4.0 | 0.00 | 0.58 | 0.04 | 78 | 1009.2 |
| 20260510164203 | 62 | 32 | 2.0 | 4.0 | 0.00 | 0.58 | 0.04 | 77 | 1009.2 |
| 20260510164103 | 62 | 32 | 2.0 | 4.0 | 0.00 | 0.58 | 0.04 | 77 | 1009.2 |
| 20260510164003 | 63 | 29 | 1.0 | 4.0 | 0.00 | 0.58 | 0.04 | 76 | 1009.1 |
| 20260510163903 | 63 | 30 | 1.0 | 4.0 | 0.00 | 0.58 | 0.04 | 76 | 1009.1 |
| 20260510163802 | 63 | 29 | 1.0 | 4.0 | 0.00 | 0.58 | 0.04 | 76 | 1009.0 |
| 20260510163703 | 64 | 31 | 1.0 | 4.0 | 0.00 | 0.58 | 0.04 | 75 | 1009.0 |
| 20260510163602 | 65 | 35 | 1.0 | 4.0 | 0.00 | 0.58 | 0.04 | 75 | 1009.1 |
| 20260510163503 | 66 | 54 | 0.0 | 1.0 | 0.00 | 0.58 | 0.04 | 74 | 1009.1 |
| 20260510163402 | 66 | 62 | 0.0 | 1.0 | 0.00 | 0.58 | 0.04 | 74 | 1009.2 |
| 20260510163302 | 67 | 69 | 0.0 | 1.0 | 0.00 | 0.58 | 0.04 | 73 | 1009.0 |
| 20260510163203 | 67 | 74 | 0.0 | 1.0 | 0.00 | 0.58 | 0.04 | 72 | 1009.0 |
| 20260510163103 | 67 | 69 | 1.0 | 8.0 | 0.00 | 0.58 | 0.04 | 73 | 1009.0 |
| 20260510163002 | 67 | 71 | 1.0 | 8.0 | 0.00 | 0.58 | 0.04 | 74 | 1009.0 |
| 20260510162903 | 67 | 73 | 1.0 | 8.0 | 0.00 | 0.58 | 0.04 | 74 | 1009.0 |
| 20260510162803 | 67 | 73 | 1.0 | 8.0 | 0.00 | 0.58 | 0.04 | 72 | 1009.0 |
| 20260510162702 | 67 | 76 | 1.0 | 8.0 | 0.00 | 0.58 | 0.04 | 71 | 1008.8 |
| 20260510162624 | 67 | 76 | 1.0 | 8.0 | 0.00 | 0.58 | 0.04 | 71 | 1008.8 |
| 20260510162503 | 67 | 79 | 2.0 | 8.0 | 0.00 | 0.58 | 0.04 | 70 | 1008.8 |
| 20260510162402 | 67 | 79 | 2.0 | 8.0 | 0.00 | 0.58 | 0.04 | 69 | 1008.9 |
| 20260510162306 | 67 | 78 | 2.0 | 8.0 | 0.00 | 0.58 | 0.04 | 70 | 1008.7 |
| 20260510162202 | 67 | 77 | 2.0 | 8.0 | 0.00 | 0.58 | 0.04 | 71 | 1008.8 |
| 20260510162123 | 67 | 76 | 2.0 | 8.0 | 0.00 | 0.58 | 0.04 | 70 | 1008.8 |
| 20260510162003 | 67 | 80 | 2.0 | 6.0 | 0.00 | 0.58 | 0.04 | 72 | 1008.6 |
| 20260510161903 | 66 | 82 | 1.0 | 6.0 | 0.00 | 0.58 | 0.04 | 74 | 1008.7 |
| 20260510161802 | 66 | 81 | 1.0 | 6.0 | 0.00 | 0.58 | 0.04 | 74 | 1008.8 |
| 20260510161703 | 66 | 84 | 2.0 | 6.0 | 0.00 | 0.58 | 0.04 | 74 | 1008.7 |
| 20260510161602 | 67 | 82 | 2.0 | 6.0 | 0.00 | 0.58 | 0.04 | 72 | 1008.7 |
| 20260510161503 | 67 | 94 | 1.0 | 7.0 | 0.00 | 0.58 | 0.04 | 71 | 1008.6 |
| 20260510161402 | 67 | 94 | 1.0 | 7.0 | 0.00 | 0.58 | 0.04 | 72 | 1008.7 |
| 20260510161303 | 66 | 92 | 1.0 | 7.0 | 0.00 | 0.58 | 0.04 | 71 | 1008.9 |
| 20260510161224 | 66 | 92 | 1.0 | 7.0 | 0.00 | 0.58 | 0.04 | 71 | 1008.9 |
| 20260510161102 | 66 | 98 | 2.0 | 7.0 | 0.00 | 0.58 | 0.04 | 74 | 1008.6 |
| 20260510161002 | 65 | 99 | 2.0 | 7.0 | 0.00 | 0.58 | 0.04 | 74 | 1008.8 |
| 20260510160903 | 65 | 98 | 2.0 | 7.0 | 0.00 | 0.58 | 0.04 | 75 | 1008.7 |
| 20260510160824 | 65 | 98 | 2.0 | 7.0 | 0.00 | 0.58 | 0.04 | 75 | 1008.7 |
| 20260510160703 | 65 | 108 | 2.0 | 7.0 | 0.00 | 0.58 | 0.04 | 73 | 1008.7 |
| 20260510160623 | 65 | 115 | 2.0 | 9.0 | 0.00 | 0.58 | 0.04 | 74 | 1008.6 |
| 20260510160503 | 65 | 115 | 3.0 | 9.0 | 0.00 | 0.58 | 0.04 | 74 | 1008.9 |
| 20260510160402 | 65 | 109 | 3.0 | 9.0 | 0.00 | 0.58 | 0.04 | 77 | 1008.7 |
| 20260510160323 | 64 | 105 | 3.0 | 9.0 | 0.00 | 0.58 | 0.04 | 77 | 1008.6 |
| 20260510160223 | 64 | 102 | 3.0 | 9.0 | 0.00 | 0.58 | 0.04 | 78 | 1008.7 |
| 20260510160024 | 62 | 108 | 3.0 | 9.0 | 0.00 | 0.58 | 0.04 | 78 | 1008.8 |
| 20260510155902 | 62 | 110 | 3.0 | 9.0 | 0.00 | 0.58 | 0.04 | 79 | 1008.8 |
| 20260510155802 | 61 | 110 | 3.0 | 9.0 | 0.00 | 0.58 | 0.04 | 78 | 1008.7 |
| 20260510155703 | 61 | 100 | 3.0 | 9.0 | 0.00 | 0.58 | 0.04 | 80 | 1008.8 |
| 20260510155624 | 61 | 89 | 3.0 | 6.0 | 0.00 | 0.58 | 0.04 | 81 | 1008.7 |
| 20260510155523 | 61 | 89 | 3.0 | 6.0 | 0.00 | 0.58 | 0.04 | 81 | 1008.7 |
| 20260510155403 | 60 | 100 | 3.0 | 6.0 | 0.00 | 0.58 | 0.04 | 81 | 1008.8 |
| 20260510155324 | 60 | 100 | 3.0 | 6.0 | 0.00 | 0.58 | 0.04 | 81 | 1008.8 |
| 20260510155203 | 61 | 126 | 2.0 | 6.0 | 0.00 | 0.58 | 0.04 | 82 | 1008.7 |
| 20260510155103 | 61 | 116 | 2.0 | 6.0 | 0.00 | 0.58 | 0.04 | 85 | 1008.6 |
| 20260510155003 | 60 | 113 | 2.0 | 6.0 | 0.00 | 0.58 | 0.04 | 86 | 1008.7 |
| 20260510154902 | 60 | 108 | 3.0 | 6.0 | 0.00 | 0.58 | 0.04 | 85 | 1009.0 |
| 20260510154803 | 60 | 108 | 3.0 | 6.0 | 0.00 | 0.58 | 0.04 | 85 | 1009.0 |
| 20260510154702 | 60 | 102 | 3.0 | 6.0 | 0.00 | 0.58 | 0.04 | 84 | 1008.9 |
| 20260510154624 | 60 | 102 | 2.0 | 6.0 | 0.00 | 0.58 | 0.04 | 83 | 1008.8 |
| 20260510154502 | 59 | 96 | 3.0 | 6.0 | 0.00 | 0.58 | 0.04 | 82 | 1008.7 |
| 20260510154403 | 59 | 84 | 2.0 | 6.0 | 0.00 | 0.58 | 0.04 | 81 | 1008.9 |
| 20260510154303 | 59 | 61 | 2.0 | 6.0 | 0.00 | 0.58 | 0.04 | 80 | 1008.8 |
| 20260510154202 | 60 | 45 | 2.0 | 6.0 | 0.00 | 0.58 | 0.04 | 82 | 1008.9 |
| 20260510154103 | 60 | 36 | 2.0 | 6.0 | 0.00 | 0.58 | 0.04 | 85 | 1008.7 |
| 20260510154002 | 60 | 20 | 2.0 | 3.0 | 0.00 | 0.58 | 0.04 | 84 | 1008.8 |
| 20260510153902 | 60 | 24 | 2.0 | 3.0 | 0.00 | 0.58 | 0.04 | 83 | 1008.8 |
| 20260510153802 | 60 | 28 | 2.0 | 3.0 | 0.00 | 0.58 | 0.04 | 82 | 1008.7 |
| 20260510153703 | 60 | 36 | 2.0 | 3.0 | 0.00 | 0.58 | 0.04 | 82 | 1008.7 |
| 20260510153603 | 60 | 41 | 2.0 | 3.0 | 0.00 | 0.58 | 0.04 | 81 | 1008.9 |
| 20260510153503 | 60 | 47 | 2.0 | 3.0 | 0.00 | 0.58 | 0.04 | 81 | 1008.9 |
| 20260510153403 | 60 | 47 | 2.0 | 3.0 | 0.00 | 0.58 | 0.04 | 81 | 1008.9 |
| 20260510153303 | 60 | 73 | 2.0 | 3.0 | 0.00 | 0.58 | 0.04 | 79 | 1008.9 |
| 20260510153202 | 60 | 73 | 2.0 | 3.0 | 0.00 | 0.58 | 0.04 | 79 | 1008.9 |
| 20260510153103 | 60 | 85 | 2.0 | 3.0 | 0.00 | 0.58 | 0.04 | 78 | 1008.9 |
| 20260510153024 | 60 | 95 | 2.0 | 6.0 | 0.00 | 0.58 | 0.04 | 77 | 1008.8 |
| 20260510152903 | 60 | 104 | 2.0 | 6.0 | 0.00 | 0.58 | 0.04 | 77 | 1008.9 |
| 20260510152802 | 60 | 104 | 2.0 | 6.0 | 0.00 | 0.58 | 0.04 | 77 | 1008.9 |
| 20260510152702 | 61 | 101 | 2.0 | 6.0 | 0.00 | 0.58 | 0.04 | 76 | 1008.8 |
| 20260510152602 | 61 | 99 | 2.0 | 6.0 | 0.00 | 0.58 | 0.04 | 76 | 1008.8 |
| 20260510152524 | 61 | 95 | 2.0 | 6.0 | 0.00 | 0.58 | 0.04 | 76 | 1009.0 |
| 20260510152424 | 61 | 94 | 2.0 | 6.0 | 0.00 | 0.58 | 0.04 | 76 | 1009.0 |
| 20260510152306 | 61 | 93 | 2.0 | 6.0 | 0.00 | 0.58 | 0.04 | 76 | 1009.1 |
| 20260510152203 | 61 | 92 | 2.0 | 6.0 | 0.00 | 0.58 | 0.04 | 76 | 1009.1 |
| 20260510152102 | 62 | 91 | 2.0 | 6.0 | 0.00 | 0.58 | 0.04 | 75 | 1008.9 |
| 20260510152002 | 62 | 87 | 2.0 | 6.0 | 0.00 | 0.58 | 0.04 | 76 | 1008.7 |
| 20260510151903 | 63 | 78 | 1.0 | 6.0 | 0.00 | 0.58 | 0.04 | 74 | 1008.9 |
| 20260510151803 | 64 | 63 | 1.0 | 4.0 | 0.00 | 0.58 | 0.04 | 72 | 1008.9 |
| 20260510151703 | 65 | 47 | 1.0 | 4.0 | 0.00 | 0.58 | 0.04 | 70 | 1008.8 |
| 20260510151603 | 65 | 353 | 0.0 | 2.0 | 0.00 | 0.58 | 0.04 | 69 | 1008.6 |
| 20260510151503 | 65 | 353 | 0.0 | 1.0 | 0.00 | 0.58 | 0.04 | 68 | 1008.6 |
| 20260510151402 | 66 | 353 | 0.0 | 1.0 | 0.00 | 0.58 | 0.04 | 66 | 1008.4 |
| 20260510151303 | 66 | 353 | 0.0 | 1.0 | 0.00 | 0.58 | 0.04 | 66 | 1008.4 |
| 20260510151203 | 66 | 353 | 0.0 | 1.0 | 0.00 | 0.58 | 0.04 | 68 | 1008.4 |
| 20260510151103 | 66 | 354 | 0.0 | 1.0 | 0.00 | 0.58 | 0.04 | 67 | 1008.4 |
| 20260510151003 | 66 | 354 | 0.0 | 1.0 | 0.00 | 0.58 | 0.04 | 66 | 1008.5 |
| 20260510150903 | 66 | 354 | 0.0 | 1.0 | 0.00 | 0.58 | 0.04 | 67 | 1008.5 |
| 20260510150803 | 66 | 354 | 0.0 | 1.0 | 0.00 | 0.58 | 0.04 | 66 | 1008.4 |
| 20260510150703 | 66 | 353 | 0.0 | 2.0 | 0.00 | 0.58 | 0.04 | 67 | 1008.4 |
| 20260510150602 | 66 | 353 | 0.0 | 2.0 | 0.00 | 0.58 | 0.04 | 67 | 1008.4 |
| 20260510150503 | 66 | 354 | 0.0 | 2.0 | 0.00 | 0.58 | 0.04 | 69 | 1008.6 |
| 20260510150403 | 65 | 354 | 1.0 | 4.0 | 0.00 | 0.58 | 0.04 | 69 | 1008.5 |
| 20260510150303 | 65 | 354 | 1.0 | 4.0 | 0.00 | 0.58 | 0.04 | 69 | 1008.5 |
| 20260510150203 | 65 | 354 | 1.0 | 4.0 | 0.00 | 0.58 | 0.04 | 68 | 1008.6 |
| 20260510150103 | 65 | 354 | 1.0 | 4.0 | 0.00 | 0.58 | 0.04 | 70 | 1008.7 |
| 20260510150003 | 64 | 354 | 1.0 | 4.0 | 0.00 | 0.58 | 0.04 | 70 | 1008.7 |
| 20260510145904 | 64 | 354 | 2.0 | 4.0 | 0.00 | 0.58 | 0.04 | 69 | 1008.6 |
| 20260510145803 | 64 | 354 | 2.0 | 4.0 | 0.00 | 0.58 | 0.04 | 67 | 1008.5 |
| 20260510145703 | 64 | 354 | 2.0 | 4.0 | 0.00 | 0.58 | 0.04 | 65 | 1008.7 |
| 20260510145603 | 64 | 354 | 2.0 | 4.0 | 0.00 | 0.58 | 0.04 | 65 | 1008.7 |
| 20260510145502 | 65 | 354 | 2.0 | 4.0 | 0.00 | 0.58 | 0.04 | 66 | 1008.6 |
| 20260510145424 | 66 | 354 | 2.0 | 4.0 | 0.00 | 0.58 | 0.04 | 64 | 1008.6 |
| 20260510145305 | 66 | 355 | 2.0 | 3.0 | 0.00 | 0.58 | 0.04 | 64 | 1008.6 |
| 20260510145203 | 67 | 355 | 1.0 | 3.0 | 0.00 | 0.58 | 0.04 | 62 | 1008.6 |
| 20260510145102 | 67 | 355 | 1.0 | 3.0 | 0.00 | 0.58 | 0.04 | 65 | 1008.8 |
| 20260510145003 | 67 | 355 | 1.0 | 3.0 | 0.00 | 0.58 | 0.04 | 63 | 1008.7 |
| 20260510144903 | 68 | 355 | 1.0 | 3.0 | 0.00 | 0.58 | 0.04 | 60 | 1008.5 |
| 20260510144803 | 68 | 355 | 1.0 | 3.0 | 0.00 | 0.58 | 0.04 | 64 | 1008.7 |
| 20260510144724 | 68 | 348 | 1.0 | 3.0 | 0.00 | 0.58 | 0.04 | 62 | 1008.8 |
| 20260510144603 | 68 | 343 | 1.0 | 2.0 | 0.00 | 0.58 | 0.04 | 68 | 1008.6 |
| 20260510144503 | 68 | 339 | 1.0 | 2.0 | 0.00 | 0.58 | 0.04 | 68 | 1008.9 |
| 20260510144402 | 67 | 333 | 1.0 | 2.0 | 0.00 | 0.58 | 0.04 | 62 | 1008.6 |
| 20260510144303 | 67 | 323 | 1.0 | 2.0 | 0.00 | 0.58 | 0.04 | 63 | 1008.6 |
| 20260510144203 | 67 | 321 | 1.0 | 2.0 | 0.00 | 0.58 | 0.04 | 63 | 1008.6 |
| 20260510144103 | 67 | 314 | 1.0 | 2.0 | 0.00 | 0.58 | 0.04 | 60 | 1008.7 |
| 20260510144003 | 67 | 314 | 1.0 | 2.0 | 0.00 | 0.58 | 0.04 | 60 | 1008.7 |
| 20260510143903 | 67 | 310 | 1.0 | 2.0 | 0.00 | 0.58 | 0.04 | 60 | 1008.7 |
| 20260510143824 | 66 | 299 | 1.0 | 2.0 | 0.00 | 0.58 | 0.04 | 64 | 1008.8 |
| 20260510143703 | 66 | 292 | 1.0 | 2.0 | 0.00 | 0.58 | 0.04 | 61 | 1008.7 |
| 20260510143602 | 66 | 292 | 0.0 | 2.0 | 0.00 | 0.58 | 0.04 | 62 | 1008.8 |
| 20260510143503 | 66 | 292 | 0.0 | 2.0 | 0.00 | 0.58 | 0.04 | 64 | 1008.8 |
| 20260510143403 | 67 | 292 | 0.0 | 2.0 | 0.00 | 0.58 | 0.04 | 60 | 1008.8 |
| 20260510143324 | 67 | 292 | 0.0 | 2.0 | 0.00 | 0.58 | 0.04 | 62 | 1008.8 |
| 20260510143202 | 66 | 0 | 0.0 | 0.0 | 0.00 | 0.58 | 0.04 | 68 | 1008.7 |
| 20260510143103 | 65 | 0 | 0.0 | 0.0 | 0.00 | 0.58 | 0.04 | 70 | 1008.8 |
| 20260510143003 | 65 | 239 | 0.0 | 1.0 | 0.00 | 0.58 | 0.04 | 67 | 1008.8 |
| 20260510142924 | 65 | 239 | 0.0 | 1.0 | 0.00 | 0.59 | 0.04 | 67 | 1008.8 |
| 20260510142824 | 65 | 239 | 0.0 | 1.0 | 0.00 | 0.59 | 0.04 | 65 | 1008.7 |
| 20260510142703 | 64 | 239 | 0.0 | 1.0 | 0.00 | 0.59 | 0.04 | 66 | 1008.8 |
| 20260510142603 | 64 | 239 | 0.0 | 1.0 | 0.00 | 0.59 | 0.04 | 66 | 1008.8 |
| 20260510142503 | 64 | 239 | 0.0 | 1.0 | 0.00 | 0.59 | 0.04 | 66 | 1008.8 |
| 20260510142405 | 64 | 239 | 0.0 | 1.0 | 0.00 | 0.59 | 0.04 | 68 | 1008.8 |
| 20260510142324 | 64 | 239 | 0.0 | 2.0 | 0.00 | 0.59 | 0.04 | 67 | 1008.7 |
| 20260510142203 | 63 | 220 | 1.0 | 3.0 | 0.00 | 0.59 | 0.04 | 67 | 1008.8 |
| 20260510142105 | 63 | 216 | 1.0 | 3.0 | 0.00 | 0.59 | 0.04 | 66 | 1008.9 |
| 20260510142003 | 63 | 216 | 1.0 | 3.0 | 0.00 | 0.59 | 0.04 | 66 | 1008.9 |
| 20260510141903 | 63 | 214 | 1.0 | 3.0 | 0.00 | 0.59 | 0.04 | 67 | 1008.9 |
| 20260510141803 | 63 | 200 | 1.0 | 3.0 | 0.00 | 0.59 | 0.04 | 66 | 1008.8 |
| 20260510141706 | 63 | 193 | 1.0 | 3.0 | 0.00 | 0.59 | 0.04 | 66 | 1008.9 |
| 20260510141602 | 63 | 189 | 1.0 | 3.0 | 0.00 | 0.59 | 0.04 | 69 | 1009.0 |
| 20260510141405 | 63 | 191 | 2.0 | 4.0 | 0.00 | 0.60 | 0.04 | 67 | 1009.0 |
| 20260510141324 | 63 | 185 | 2.0 | 4.0 | 0.00 | 0.60 | 0.04 | 67 | 1008.9 |
| 20260510141224 | 63 | 185 | 2.0 | 4.0 | 0.00 | 0.60 | 0.04 | 67 | 1008.9 |
| 20260510141103 | 63 | 186 | 2.0 | 6.0 | 0.00 | 0.60 | 0.04 | 68 | 1008.8 |
| 20260510141003 | 63 | 196 | 2.0 | 6.0 | 0.00 | 0.60 | 0.04 | 68 | 1008.9 |
| 20260510140924 | 63 | 196 | 2.0 | 6.0 | 0.00 | 0.60 | 0.04 | 68 | 1008.9 |
| 20260510140803 | 63 | 192 | 2.0 | 6.0 | 0.00 | 0.60 | 0.04 | 68 | 1008.9 |
| 20260510140703 | 63 | 198 | 2.0 | 6.0 | 0.00 | 0.60 | 0.04 | 68 | 1008.8 |
| 20260510140624 | 63 | 205 | 3.0 | 6.0 | 0.00 | 0.60 | 0.04 | 67 | 1009.0 |
| 20260510140403 | 63 | 208 | 3.0 | 6.0 | 0.00 | 0.60 | 0.04 | 66 | 1009.0 |
| 20260510140305 | 63 | 209 | 3.0 | 6.0 | 0.00 | 0.60 | 0.04 | 67 | 1008.9 |
| 20260510140203 | 63 | 214 | 3.0 | 6.0 | 0.00 | 0.60 | 0.04 | 66 | 1008.7 |
| 20260510140104 | 63 | 215 | 2.0 | 6.0 | 0.00 | 0.60 | 0.04 | 66 | 1008.8 |
| 20260510140003 | 63 | 217 | 2.0 | 4.0 | 0.00 | 0.60 | 0.04 | 66 | 1008.9 |
| 20260510135904 | 63 | 206 | 2.0 | 4.0 | 0.00 | 0.60 | 0.04 | 67 | 1008.7 |
| 20260510135824 | 63 | 208 | 2.0 | 4.0 | 0.00 | 0.60 | 0.04 | 68 | 1008.8 |
| 20260510135603 | 63 | 200 | 2.0 | 7.0 | 0.00 | 0.60 | 0.04 | 66 | 1008.8 |
| 20260510135503 | 63 | 199 | 3.0 | 7.0 | 0.00 | 0.60 | 0.04 | 67 | 1009.0 |
| 20260510135405 | 63 | 199 | 3.0 | 7.0 | 0.00 | 0.60 | 0.04 | 67 | 1009.0 |
| 20260510135212 | 63 | 203 | 3.0 | 7.0 | 0.00 | 0.60 | 0.04 | 68 | 1008.7 |
| 20260510135124 | 63 | 203 | 3.0 | 11.0 | 0.00 | 0.60 | 0.04 | 70 | 1008.7 |
| 20260510135003 | 63 | 201 | 4.0 | 11.0 | 0.00 | 0.60 | 0.04 | 69 | 1008.9 |
| 20260510134904 | 63 | 199 | 3.0 | 11.0 | 0.00 | 0.60 | 0.04 | 68 | 1008.8 |
| 20260510134803 | 63 | 196 | 3.0 | 11.0 | 0.00 | 0.60 | 0.04 | 68 | 1008.8 |
| 20260510134703 | 63 | 193 | 4.0 | 11.0 | 0.00 | 0.60 | 0.04 | 66 | 1008.9 |
| 20260510134606 | 63 | 188 | 3.0 | 11.0 | 0.00 | 0.60 | 0.04 | 66 | 1008.7 |
| 20260510134503 | 63 | 185 | 3.0 | 11.0 | 0.00 | 0.60 | 0.04 | 67 | 1008.8 |
| 20260510134403 | 63 | 171 | 4.0 | 11.0 | 0.00 | 0.60 | 0.04 | 66 | 1008.9 |
| 20260510134303 | 63 | 163 | 3.0 | 11.0 | 0.00 | 0.60 | 0.04 | 68 | 1008.7 |
| 20260510134203 | 63 | 169 | 3.0 | 11.0 | 0.00 | 0.60 | 0.04 | 68 | 1009.0 |
| 20260510134104 | 63 | 156 | 3.0 | 11.0 | 0.00 | 0.60 | 0.04 | 70 | 1008.8 |
| 20260510134002 | 63 | 165 | 3.0 | 11.0 | 0.00 | 0.60 | 0.04 | 71 | 1008.9 |
| 20260510133905 | 63 | 168 | 3.0 | 11.0 | 0.00 | 0.60 | 0.04 | 70 | 1008.8 |
| 20260510133824 | 63 | 168 | 3.0 | 11.0 | 0.00 | 0.60 | 0.04 | 70 | 1008.8 |
| 20260510133703 | 63 | 163 | 3.0 | 11.0 | 0.00 | 0.60 | 0.04 | 70 | 1008.9 |
| 20260510133603 | 63 | 171 | 3.0 | 11.0 | 0.00 | 0.60 | 0.04 | 72 | 1009.0 |
| 20260510133530 | 63 | 186 | 3.0 | 11.0 | 0.00 | 0.60 | 0.04 | 70 | 1008.9 |
| 20260510133404 | 64 | 201 | 3.0 | 11.0 | 0.00 | 0.60 | 0.04 | 68 | 1008.8 |
| 20260510133203 | 64 | 227 | 3.0 | 8.0 | 0.00 | 0.60 | 0.04 | 69 | 1008.8 |
| 20260510133103 | 64 | 227 | 3.0 | 8.0 | 0.00 | 0.60 | 0.04 | 70 | 1008.9 |
| 20260510133003 | 64 | 228 | 3.0 | 8.0 | 0.00 | 0.60 | 0.04 | 69 | 1008.8 |
| 20260510132903 | 64 | 224 | 3.0 | 8.0 | 0.00 | 0.60 | 0.04 | 71 | 1008.8 |
| 20260510132804 | 64 | 219 | 3.0 | 9.0 | 0.00 | 0.60 | 0.04 | 72 | 1008.7 |
| 20260510132703 | 63 | 217 | 3.0 | 9.0 | 0.00 | 0.60 | 0.04 | 70 | 1008.9 |
| 20260510132603 | 63 | 206 | 3.0 | 9.0 | 0.00 | 0.60 | 0.04 | 69 | 1008.8 |
| 20260510132503 | 63 | 187 | 4.0 | 9.0 | 0.00 | 0.60 | 0.04 | 70 | 1008.7 |
| 20260510132403 | 63 | 191 | 4.0 | 14.0 | 0.00 | 0.60 | 0.04 | 70 | 1008.8 |
| 20260510132306 | 63 | 194 | 4.0 | 14.0 | 0.00 | 0.60 | 0.04 | 70 | 1008.8 |
| 20260510132206 | 63 | 194 | 4.0 | 14.0 | 0.00 | 0.60 | 0.04 | 70 | 1008.8 |
| 20260510132124 | 63 | 184 | 4.0 | 14.0 | 0.00 | 0.60 | 0.04 | 71 | 1008.8 |
| 20260510132003 | 62 | 171 | 4.0 | 14.0 | 0.00 | 0.60 | 0.04 | 69 | 1008.7 |
| 20260510131903 | 62 | 175 | 5.0 | 14.0 | 0.00 | 0.60 | 0.04 | 69 | 1008.8 |
| 20260510131807 | 63 | 173 | 5.0 | 14.0 | 0.00 | 0.60 | 0.04 | 69 | 1008.7 |
| 20260510131703 | 63 | 173 | 5.0 | 14.0 | 0.00 | 0.60 | 0.04 | 68 | 1008.8 |
| 20260510131603 | 63 | 177 | 5.0 | 14.0 | 0.00 | 0.60 | 0.04 | 69 | 1008.8 |
| 20260510131504 | 63 | 184 | 5.0 | 14.0 | 0.00 | 0.60 | 0.04 | 68 | 1008.6 |
| 20260510131403 | 63 | 185 | 5.0 | 14.0 | 0.00 | 0.60 | 0.04 | 67 | 1008.7 |
| 20260510131306 | 63 | 177 | 4.0 | 10.0 | 0.00 | 0.60 | 0.04 | 68 | 1008.6 |
| 20260510131203 | 63 | 170 | 4.0 | 10.0 | 0.00 | 0.60 | 0.04 | 69 | 1008.7 |
| 20260510131124 | 62 | 170 | 3.0 | 10.0 | 0.00 | 0.60 | 0.04 | 70 | 1008.7 |
| 20260510131003 | 62 | 176 | 3.0 | 10.0 | 0.00 | 0.60 | 0.04 | 69 | 1008.7 |
| 20260510130924 | 62 | 174 | 3.0 | 10.0 | 0.00 | 0.60 | 0.04 | 69 | 1008.7 |
| 20260510130810 | 62 | 158 | 2.0 | 7.0 | 0.00 | 0.60 | 0.04 | 71 | 1008.5 |
| 20260510130704 | 62 | 143 | 2.0 | 7.0 | 0.00 | 0.60 | 0.04 | 70 | 1008.6 |
| 20260510130603 | 62 | 114 | 2.0 | 4.0 | 0.00 | 0.60 | 0.04 | 71 | 1008.8 |
| 20260510130503 | 62 | 100 | 2.0 | 4.0 | 0.00 | 0.60 | 0.04 | 73 | 1008.6 |
| 20260510130403 | 62 | 100 | 2.0 | 4.0 | 0.00 | 0.60 | 0.04 | 73 | 1008.6 |
| 20260510130303 | 62 | 100 | 2.0 | 4.0 | 0.00 | 0.60 | 0.04 | 74 | 1008.7 |
| 20260510130204 | 62 | 100 | 2.0 | 4.0 | 0.00 | 0.60 | 0.04 | 74 | 1008.7 |
| 20260510130024 | 62 | 100 | 2.0 | 4.0 | 0.00 | 0.60 | 0.04 | 74 | 1008.7 |
| 20260510125903 | 62 | 100 | 2.0 | 4.0 | 0.00 | 0.60 | 0.04 | 74 | 1008.7 |
| 20260510125805 | 62 | 100 | 2.0 | 4.0 | 0.00 | 0.60 | 0.04 | 73 | 1008.7 |
| 20260510125706 | 63 | 100 | 2.0 | 4.0 | 0.00 | 0.60 | 0.04 | 72 | 1008.6 |
| 20260510125603 | 63 | 100 | 2.0 | 4.0 | 0.00 | 0.60 | 0.04 | 72 | 1008.7 |
| 20260510125524 | 63 | 100 | 2.0 | 4.0 | 0.00 | 0.60 | 0.04 | 71 | 1008.6 |
| 20260510125403 | 64 | 100 | 2.0 | 3.0 | 0.00 | 0.60 | 0.04 | 72 | 1008.5 |
| 20260510125224 | 64 | 99 | 2.0 | 3.0 | 0.00 | 0.60 | 0.04 | 72 | 1008.7 |
| 20260510125124 | 64 | 99 | 2.0 | 3.0 | 0.00 | 0.60 | 0.04 | 72 | 1008.7 |
| 20260510124903 | 63 | 99 | 2.0 | 6.0 | 0.00 | 0.60 | 0.04 | 71 | 1008.7 |
| 20260510124703 | 63 | 99 | 3.0 | 6.0 | 0.00 | 0.60 | 0.04 | 73 | 1008.8 |
| 20260510124603 | 63 | 99 | 3.0 | 6.0 | 0.00 | 0.60 | 0.04 | 73 | 1008.8 |
| 20260510124524 | 63 | 99 | 3.0 | 6.0 | 0.00 | 0.60 | 0.04 | 72 | 1008.8 |
| 20260510124404 | 63 | 99 | 3.0 | 6.0 | 0.00 | 0.60 | 0.04 | 75 | 1008.8 |
| 20260510124306 | 62 | 110 | 3.0 | 6.0 | 0.00 | 0.60 | 0.04 | 76 | 1008.7 |
| 20260510124203 | 62 | 116 | 3.0 | 6.0 | 0.00 | 0.60 | 0.04 | 76 | 1008.8 |
| 20260510124103 | 62 | 124 | 3.0 | 6.0 | 0.00 | 0.60 | 0.04 | 75 | 1008.7 |
| 20260510124003 | 62 | 136 | 2.0 | 6.0 | 0.00 | 0.60 | 0.04 | 76 | 1008.5 |
| 20260510123903 | 62 | 142 | 2.0 | 6.0 | 0.00 | 0.60 | 0.04 | 74 | 1008.8 |
| 20260510123808 | 62 | 149 | 2.0 | 6.0 | 0.00 | 0.60 | 0.04 | 73 | 1008.8 |
| 20260510123703 | 62 | 163 | 2.0 | 6.0 | 0.00 | 0.60 | 0.04 | 74 | 1008.8 |
| 20260510123604 | 62 | 173 | 2.0 | 6.0 | 0.00 | 0.60 | 0.04 | 74 | 1008.7 |
| 20260510123503 | 62 | 186 | 1.0 | 6.0 | 0.00 | 0.60 | 0.04 | 75 | 1008.7 |
| 20260510123404 | 62 | 194 | 1.0 | 6.0 | 0.00 | 0.60 | 0.04 | 75 | 1008.7 |
| 20260510123304 | 62 | 194 | 1.0 | 3.0 | 0.00 | 0.60 | 0.04 | 75 | 1008.8 |
| 20260510123205 | 62 | 195 | 1.0 | 3.0 | 0.00 | 0.60 | 0.04 | 74 | 1008.7 |
| 20260510123103 | 62 | 195 | 1.0 | 3.0 | 0.00 | 0.60 | 0.04 | 76 | 1008.8 |
| 20260510123003 | 62 | 200 | 1.0 | 3.0 | 0.00 | 0.60 | 0.04 | 76 | 1008.9 |
| 20260510122903 | 62 | 200 | 1.0 | 3.0 | 0.00 | 0.60 | 0.04 | 76 | 1008.8 |
| 20260510122803 | 62 | 200 | 1.0 | 3.0 | 0.00 | 0.60 | 0.04 | 76 | 1008.8 |
| 20260510122703 | 62 | 200 | 1.0 | 3.0 | 0.00 | 0.60 | 0.04 | 76 | 1008.9 |
| 20260510122604 | 62 | 200 | 1.0 | 3.0 | 0.00 | 0.60 | 0.04 | 76 | 1008.7 |
| 20260510122503 | 62 | 200 | 1.0 | 3.0 | 0.00 | 0.60 | 0.04 | 77 | 1008.6 |
| 20260510122306 | 62 | 201 | 1.0 | 3.0 | 0.00 | 0.60 | 0.04 | 78 | 1008.7 |
| 20260510122203 | 62 | 213 | 1.0 | 3.0 | 0.00 | 0.60 | 0.04 | 76 | 1009.0 |
| 20260510122103 | 62 | 220 | 1.0 | 3.0 | 0.00 | 0.60 | 0.04 | 76 | 1008.8 |
| 20260510121906 | 62 | 234 | 1.0 | 3.0 | 0.00 | 0.60 | 0.04 | 77 | 1009.0 |
| 20260510121807 | 62 | 241 | 1.0 | 3.0 | 0.00 | 0.60 | 0.04 | 76 | 1008.8 |
| 20260510121703 | 62 | 250 | 1.0 | 3.0 | 0.00 | 0.60 | 0.04 | 77 | 1008.8 |
| 20260510121603 | 62 | 259 | 1.0 | 3.0 | 0.00 | 0.60 | 0.04 | 78 | 1008.8 |
| 20260510121503 | 62 | 264 | 1.0 | 3.0 | 0.00 | 0.60 | 0.04 | 78 | 1008.8 |
| 20260510121403 | 62 | 264 | 1.0 | 3.0 | 0.00 | 0.60 | 0.04 | 76 | 1008.8 |
| 20260510121303 | 62 | 275 | 1.0 | 3.0 | 0.00 | 0.60 | 0.04 | 76 | 1008.9 |
| 20260510121203 | 62 | 275 | 1.0 | 3.0 | 0.00 | 0.60 | 0.04 | 76 | 1008.9 |
| 20260510121103 | 62 | 276 | 1.0 | 2.0 | 0.00 | 0.60 | 0.04 | 77 | 1008.8 |
| 20260510121003 | 62 | 271 | 1.0 | 2.0 | 0.00 | 0.60 | 0.04 | 78 | 1008.8 |
| 20260510120903 | 61 | 257 | 1.0 | 3.0 | 0.00 | 0.60 | 0.04 | 78 | 1008.7 |
| 20260510120824 | 61 | 253 | 1.0 | 3.0 | 0.00 | 0.60 | 0.04 | 78 | 1008.8 |
| 20260510120703 | 61 | 246 | 1.0 | 3.0 | 0.00 | 0.60 | 0.04 | 78 | 1008.8 |
| 20260510120603 | 61 | 242 | 1.0 | 3.0 | 0.00 | 0.60 | 0.04 | 77 | 1008.8 |
| 20260510120503 | 61 | 228 | 1.0 | 3.0 | 0.00 | 0.60 | 0.04 | 78 | 1008.7 |
| 20260510120403 | 61 | 215 | 1.0 | 3.0 | 0.00 | 0.60 | 0.04 | 78 | 1008.7 |
| 20260510120324 | 61 | 212 | 1.0 | 3.0 | 0.00 | 0.60 | 0.04 | 78 | 1008.7 |
| 20260510120203 | 61 | 208 | 1.0 | 3.0 | 0.00 | 0.60 | 0.04 | 79 | 1008.7 |
| 20260510120003 | 61 | 203 | 1.0 | 3.0 | 0.00 | 0.60 | 0.04 | 77 | 1008.8 |
| 20260510115924 | 61 | 203 | 1.0 | 3.0 | 0.00 | 0.60 | 0.04 | 77 | 1008.8 |
| 20260510115803 | 61 | 198 | 1.0 | 3.0 | 0.00 | 0.60 | 0.04 | 78 | 1009.0 |
| 20260510115724 | 61 | 198 | 1.0 | 3.0 | 0.00 | 0.60 | 0.04 | 78 | 1009.0 |
| 20260510115603 | 61 | 201 | 1.0 | 3.0 | 0.00 | 0.60 | 0.04 | 78 | 1008.8 |
| 20260510115524 | 61 | 194 | 1.0 | 3.0 | 0.00 | 0.60 | 0.04 | 78 | 1009.1 |
| 20260510115424 | 61 | 187 | 1.0 | 3.0 | 0.00 | 0.60 | 0.04 | 77 | 1008.8 |
| 20260510115306 | 61 | 176 | 1.0 | 3.0 | 0.00 | 0.60 | 0.04 | 78 | 1008.8 |
| 20260510115203 | 61 | 159 | 1.0 | 3.0 | 0.00 | 0.60 | 0.04 | 78 | 1008.8 |
| 20260510115103 | 61 | 150 | 1.0 | 3.0 | 0.00 | 0.60 | 0.04 | 77 | 1008.7 |
| 20260510115003 | 61 | 147 | 1.0 | 3.0 | 0.00 | 0.60 | 0.04 | 77 | 1008.8 |
| 20260510114903 | 61 | 149 | 1.0 | 3.0 | 0.00 | 0.60 | 0.04 | 77 | 1008.6 |
| 20260510114803 | 61 | 145 | 1.0 | 3.0 | 0.00 | 0.60 | 0.04 | 78 | 1008.7 |
| 20260510114703 | 61 | 139 | 2.0 | 3.0 | 0.00 | 0.60 | 0.04 | 78 | 1008.8 |
| 20260510114603 | 61 | 128 | 2.0 | 3.0 | 0.00 | 0.60 | 0.04 | 78 | 1008.7 |
| 20260510114503 | 61 | 128 | 2.0 | 3.0 | 0.00 | 0.60 | 0.04 | 79 | 1008.7 |
| 20260510114403 | 62 | 129 | 2.0 | 3.0 | 0.00 | 0.60 | 0.04 | 79 | 1008.8 |
| 20260510114303 | 62 | 127 | 2.0 | 3.0 | 0.00 | 0.60 | 0.04 | 78 | 1008.7 |
| 20260510114203 | 61 | 127 | 2.0 | 3.0 | 0.00 | 0.60 | 0.04 | 78 | 1008.9 |
| 20260510114103 | 61 | 125 | 2.0 | 3.0 | 0.00 | 0.60 | 0.04 | 77 | 1008.8 |
| 20260510114003 | 61 | 125 | 2.0 | 3.0 | 0.00 | 0.60 | 0.04 | 77 | 1008.8 |
| 20260510113924 | 62 | 119 | 2.0 | 3.0 | 0.00 | 0.60 | 0.04 | 77 | 1008.8 |
| 20260510113803 | 62 | 117 | 2.0 | 4.0 | 0.00 | 0.60 | 0.04 | 77 | 1008.6 |
| 20260510113703 | 61 | 112 | 2.0 | 4.0 | 0.00 | 0.60 | 0.04 | 77 | 1008.8 |
| 20260510113603 | 61 | 113 | 1.0 | 4.0 | 0.00 | 0.60 | 0.04 | 76 | 1008.7 |
| 20260510113503 | 61 | 114 | 2.0 | 4.0 | 0.01 | 0.60 | 0.04 | 76 | 1008.5 |
| 20260510113403 | 61 | 128 | 2.0 | 4.0 | 0.01 | 0.60 | 0.04 | 76 | 1008.7 |
| 20260510113303 | 61 | 127 | 2.0 | 4.0 | 0.02 | 0.60 | 0.04 | 76 | 1008.7 |
| 20260510113224 | 61 | 128 | 2.0 | 4.0 | 0.02 | 0.60 | 0.04 | 75 | 1008.7 |
| 20260510113103 | 61 | 128 | 2.0 | 4.0 | 0.02 | 0.60 | 0.04 | 74 | 1008.7 |
| 20260510113003 | 61 | 127 | 2.0 | 6.0 | 0.04 | 0.60 | 0.04 | 76 | 1008.8 |
| 20260510112903 | 61 | 127 | 2.0 | 6.0 | 0.04 | 0.60 | 0.04 | 75 | 1008.9 |
| 20260510112824 | 61 | 127 | 2.0 | 6.0 | 0.04 | 0.60 | 0.04 | 75 | 1008.9 |
| 20260510112703 | 62 | 122 | 2.0 | 6.0 | 0.04 | 0.60 | 0.04 | 77 | 1008.7 |
| 20260510112603 | 62 | 121 | 2.0 | 6.0 | 0.04 | 0.60 | 0.04 | 75 | 1008.6 |
| 20260510112524 | 62 | 121 | 2.0 | 6.0 | 0.04 | 0.60 | 0.04 | 75 | 1008.6 |
| 20260510112403 | 62 | 121 | 2.0 | 6.0 | 0.04 | 0.60 | 0.04 | 74 | 1008.7 |
| 20260510112305 | 62 | 110 | 2.0 | 6.0 | 0.04 | 0.60 | 0.04 | 75 | 1008.7 |
| 20260510112203 | 62 | 110 | 2.0 | 6.0 | 0.04 | 0.60 | 0.04 | 76 | 1008.7 |
| 20260510112103 | 62 | 109 | 2.0 | 6.0 | 0.04 | 0.60 | 0.04 | 76 | 1008.7 |
| 20260510112003 | 62 | 109 | 2.0 | 6.0 | 0.04 | 0.60 | 0.04 | 76 | 1008.7 |
| 20260510111903 | 62 | 110 | 2.0 | 3.0 | 0.04 | 0.60 | 0.04 | 81 | 1008.7 |
| 20260510111803 | 62 | 110 | 2.0 | 3.0 | 0.04 | 0.60 | 0.04 | 80 | 1008.8 |
| 20260510111724 | 62 | 108 | 2.0 | 4.0 | 0.04 | 0.60 | 0.04 | 81 | 1008.7 |
| 20260510111603 | 62 | 102 | 2.0 | 9.0 | 0.04 | 0.60 | 0.04 | 81 | 1008.8 |
| 20260510111503 | 61 | 109 | 3.0 | 9.0 | 0.04 | 0.60 | 0.04 | 80 | 1008.6 |
| 20260510111403 | 62 | 129 | 3.0 | 10.0 | 0.04 | 0.60 | 0.04 | 79 | 1008.7 |
| 20260510111324 | 62 | 129 | 3.0 | 10.0 | 0.04 | 0.60 | 0.04 | 82 | 1008.8 |
| 20260510111203 | 61 | 132 | 3.0 | 10.0 | 0.04 | 0.60 | 0.04 | 83 | 1008.7 |
| 20260510111103 | 61 | 134 | 3.0 | 10.0 | 0.04 | 0.60 | 0.04 | 82 | 1008.7 |
| 20260510111003 | 60 | 128 | 3.0 | 10.0 | 0.04 | 0.60 | 0.04 | 81 | 1008.7 |
| 20260510110903 | 60 | 128 | 3.0 | 10.0 | 0.04 | 0.60 | 0.04 | 81 | 1008.8 |
| 20260510110803 | 60 | 128 | 3.0 | 10.0 | 0.04 | 0.60 | 0.04 | 81 | 1008.8 |
| 20260510110724 | 60 | 124 | 3.0 | 10.0 | 0.04 | 0.60 | 0.04 | 81 | 1008.6 |
| 20260510110603 | 59 | 119 | 3.0 | 10.0 | 0.04 | 0.60 | 0.04 | 80 | 1008.5 |
| 20260510110503 | 59 | 110 | 2.0 | 10.0 | 0.04 | 0.60 | 0.04 | 82 | 1008.8 |
| 20260510110403 | 59 | 110 | 2.0 | 10.0 | 0.04 | 0.60 | 0.04 | 82 | 1008.8 |
| 20260510110303 | 60 | 67 | 2.0 | 4.0 | 0.04 | 0.60 | 0.04 | 86 | 1008.6 |
| 20260510110203 | 60 | 52 | 2.0 | 4.0 | 0.04 | 0.60 | 0.04 | 88 | 1008.7 |
| 20260510110124 | 60 | 43 | 1.0 | 4.0 | 0.04 | 0.60 | 0.04 | 89 | 1008.8 |
| 20260510110003 | 60 | 29 | 1.0 | 4.0 | 0.04 | 0.60 | 0.04 | 89 | 1008.6 |
| 20260510105903 | 59 | 9 | 1.0 | 3.0 | 0.04 | 0.60 | 0.04 | 90 | 1008.7 |
| 20260510105824 | 59 | 2 | 1.0 | 3.0 | 0.04 | 0.60 | 0.04 | 89 | 1008.8 |
| 20260510105724 | 58 | 354 | 1.0 | 3.0 | 0.04 | 0.60 | 0.04 | 89 | 1008.7 |
| 20260510105603 | 58 | 336 | 0.0 | 2.0 | 0.04 | 0.60 | 0.04 | 90 | 1009.0 |
| 20260510105503 | 58 | 327 | 0.0 | 2.0 | 0.04 | 0.60 | 0.04 | 91 | 1008.6 |
| 20260510105403 | 58 | 314 | 0.0 | 1.0 | 0.04 | 0.60 | 0.04 | 91 | 1008.7 |
| 20260510105306 | 58 | 314 | 0.0 | 1.0 | 0.04 | 0.60 | 0.04 | 92 | 1008.8 |
| 20260510105203 | 58 | 314 | 0.0 | 2.0 | 0.04 | 0.60 | 0.04 | 92 | 1008.8 |
| 20260510105124 | 58 | 314 | 0.0 | 2.0 | 0.04 | 0.60 | 0.04 | 92 | 1008.8 |
| 20260510105003 | 58 | 314 | 0.0 | 2.0 | 0.04 | 0.60 | 0.04 | 92 | 1008.8 |
| 20260510104924 | 58 | 315 | 1.0 | 2.0 | 0.04 | 0.60 | 0.04 | 91 | 1008.9 |
| 20260510104803 | 58 | 315 | 1.0 | 2.0 | 0.04 | 0.60 | 0.04 | 91 | 1008.8 |
| 20260510104703 | 57 | 315 | 1.0 | 2.0 | 0.04 | 0.60 | 0.04 | 91 | 1008.7 |
| 20260510104603 | 57 | 315 | 1.0 | 2.0 | 0.04 | 0.60 | 0.04 | 91 | 1008.8 |
| 20260510104503 | 56 | 315 | 1.0 | 2.0 | 0.04 | 0.60 | 0.04 | 91 | 1008.8 |
| 20260510104403 | 56 | 311 | 1.0 | 2.0 | 0.04 | 0.60 | 0.04 | 90 | 1008.7 |
| 20260510104303 | 56 | 308 | 1.0 | 2.0 | 0.04 | 0.60 | 0.04 | 90 | 1008.8 |
| 20260510104203 | 56 | 302 | 1.0 | 3.0 | 0.04 | 0.60 | 0.04 | 89 | 1008.8 |
| 20260510104124 | 56 | 296 | 2.0 | 4.0 | 0.04 | 0.60 | 0.04 | 89 | 1008.6 |
| 20260510104003 | 56 | 289 | 2.0 | 4.0 | 0.04 | 0.60 | 0.04 | 89 | 1008.7 |
| 20260510103924 | 57 | 284 | 2.0 | 4.0 | 0.04 | 0.60 | 0.04 | 89 | 1008.8 |
| 20260510103803 | 57 | 276 | 2.0 | 4.0 | 0.04 | 0.60 | 0.04 | 88 | 1008.7 |
| 20260510103724 | 57 | 264 | 2.0 | 4.0 | 0.04 | 0.60 | 0.04 | 88 | 1008.7 |
| 20260510103603 | 57 | 256 | 2.0 | 4.0 | 0.04 | 0.60 | 0.04 | 87 | 1008.8 |
| 20260510103503 | 57 | 240 | 2.0 | 4.0 | 0.03 | 0.59 | 0.03 | 86 | 1008.8 |
| 20260510103403 | 58 | 217 | 2.0 | 4.0 | 0.03 | 0.59 | 0.03 | 86 | 1008.8 |
| 20260510103303 | 58 | 194 | 2.0 | 4.0 | 0.02 | 0.58 | 0.02 | 85 | 1008.8 |
| 20260510103203 | 58 | 194 | 2.0 | 4.0 | 0.02 | 0.58 | 0.02 | 85 | 1008.8 |
| 20260510103103 | 59 | 161 | 3.0 | 8.0 | 0.02 | 0.58 | 0.02 | 84 | 1008.7 |
| 20260510103003 | 59 | 142 | 3.0 | 8.0 | 0.00 | 0.56 | 0.00 | 83 | 1008.9 |
| 20260510102903 | 59 | 135 | 3.0 | 8.0 | 0.00 | 0.56 | 0.00 | 81 | 1008.7 |
| 20260510102803 | 59 | 138 | 3.0 | 8.0 | 0.00 | 0.56 | 0.00 | 80 | 1008.6 |
| 20260510102703 | 59 | 137 | 3.0 | 8.0 | 0.00 | 0.56 | 0.00 | 80 | 1008.7 |
| 20260510102624 | 59 | 132 | 4.0 | 8.0 | 0.00 | 0.56 | 0.00 | 79 | 1008.7 |
| 20260510102503 | 59 | 132 | 4.0 | 8.0 | 0.00 | 0.56 | 0.00 | 79 | 1008.7 |
| 20260510102403 | 59 | 131 | 4.0 | 8.0 | 0.00 | 0.56 | 0.00 | 79 | 1008.6 |
| 20260510102305 | 60 | 131 | 4.0 | 8.0 | 0.00 | 0.56 | 0.00 | 78 | 1008.5 |
| 20260510102203 | 60 | 127 | 4.0 | 8.0 | 0.00 | 0.56 | 0.00 | 77 | 1008.6 |
| 20260510102103 | 60 | 127 | 3.0 | 7.0 | 0.00 | 0.56 | 0.00 | 77 | 1008.4 |
| 20260510102003 | 60 | 130 | 3.0 | 7.0 | 0.00 | 0.56 | 0.00 | 75 | 1008.6 |
| 20260510101903 | 60 | 128 | 3.0 | 6.0 | 0.00 | 0.56 | 0.00 | 76 | 1008.7 |
| 20260510101803 | 60 | 124 | 3.0 | 6.0 | 0.00 | 0.56 | 0.00 | 75 | 1008.7 |
| 20260510101703 | 61 | 122 | 2.0 | 6.0 | 0.00 | 0.56 | 0.00 | 76 | 1008.6 |
| 20260510101624 | 61 | 122 | 2.0 | 6.0 | 0.00 | 0.56 | 0.00 | 76 | 1008.6 |
| 20260510101524 | 61 | 131 | 2.0 | 6.0 | 0.00 | 0.56 | 0.00 | 76 | 1008.5 |
| 20260510101403 | 61 | 130 | 2.0 | 6.0 | 0.00 | 0.56 | 0.00 | 75 | 1008.6 |
| 20260510101324 | 61 | 132 | 2.0 | 6.0 | 0.00 | 0.56 | 0.00 | 74 | 1008.5 |
| 20260510101203 | 61 | 130 | 3.0 | 6.0 | 0.00 | 0.56 | 0.00 | 75 | 1008.5 |
| 20260510101103 | 61 | 129 | 3.0 | 6.0 | 0.00 | 0.56 | 0.00 | 75 | 1008.6 |
| 20260510101003 | 61 | 128 | 3.0 | 6.0 | 0.00 | 0.56 | 0.00 | 75 | 1008.5 |
| 20260510100903 | 61 | 128 | 2.0 | 6.0 | 0.00 | 0.56 | 0.00 | 75 | 1008.3 |
| 20260510100803 | 61 | 127 | 2.0 | 6.0 | 0.00 | 0.56 | 0.00 | 76 | 1008.5 |
| 20260510100703 | 61 | 120 | 2.0 | 6.0 | 0.00 | 0.56 | 0.00 | 74 | 1008.5 |
| 20260510100603 | 61 | 120 | 2.0 | 6.0 | 0.00 | 0.56 | 0.00 | 75 | 1008.4 |
| 20260510100503 | 61 | 103 | 2.0 | 4.0 | 0.00 | 0.56 | 0.00 | 74 | 1008.6 |
| 20260510100403 | 62 | 99 | 1.0 | 4.0 | 0.00 | 0.56 | 0.00 | 76 | 1008.7 |
| 20260510100303 | 62 | 107 | 1.0 | 4.0 | 0.00 | 0.56 | 0.00 | 77 | 1008.5 |
| 20260510100203 | 62 | 107 | 1.0 | 4.0 | 0.00 | 0.56 | 0.00 | 79 | 1008.4 |
| 20260510100004 | 61 | 107 | 1.0 | 4.0 | 0.00 | 0.56 | 0.00 | 77 | 1008.5 |
| 20260510095903 | 61 | 107 | 1.0 | 4.0 | 0.00 | 0.56 | 0.00 | 76 | 1008.5 |
| 20260510095803 | 61 | 106 | 1.0 | 4.0 | 0.00 | 0.56 | 0.00 | 78 | 1008.6 |
| 20260510095703 | 61 | 108 | 1.0 | 4.0 | 0.00 | 0.56 | 0.00 | 79 | 1008.6 |
| 20260510095603 | 61 | 115 | 2.0 | 4.0 | 0.00 | 0.56 | 0.00 | 77 | 1008.5 |
| 20260510095503 | 61 | 132 | 2.0 | 4.0 | 0.00 | 0.56 | 0.00 | 79 | 1008.7 |
| 20260510095424 | 61 | 132 | 2.0 | 4.0 | 0.00 | 0.56 | 0.00 | 79 | 1008.7 |
| 20260510095305 | 61 | 117 | 2.0 | 4.0 | 0.00 | 0.56 | 0.00 | 79 | 1008.5 |
| 20260510095203 | 61 | 117 | 2.0 | 4.0 | 0.00 | 0.56 | 0.00 | 79 | 1008.5 |
| 20260510095103 | 61 | 113 | 2.0 | 6.0 | 0.00 | 0.56 | 0.00 | 80 | 1008.5 |
| 20260510095024 | 61 | 113 | 2.0 | 6.0 | 0.00 | 0.56 | 0.00 | 80 | 1008.5 |
| 20260510094903 | 60 | 112 | 2.0 | 6.0 | 0.00 | 0.56 | 0.00 | 80 | 1008.6 |
| 20260510094824 | 60 | 112 | 3.0 | 6.0 | 0.00 | 0.56 | 0.00 | 80 | 1008.4 |
| 20260510094703 | 60 | 112 | 3.0 | 7.0 | 0.00 | 0.56 | 0.00 | 78 | 1008.5 |
| 20260510094603 | 60 | 111 | 3.0 | 7.0 | 0.00 | 0.56 | 0.00 | 78 | 1008.4 |
| 20260510094503 | 59 | 109 | 3.0 | 7.0 | 0.00 | 0.56 | 0.00 | 78 | 1008.5 |
| 20260510094424 | 59 | 102 | 3.0 | 7.0 | 0.00 | 0.56 | 0.00 | 79 | 1008.5 |
| 20260510094303 | 59 | 99 | 3.0 | 7.0 | 0.00 | 0.56 | 0.00 | 79 | 1008.4 |
| 20260510094203 | 59 | 101 | 3.0 | 7.0 | 0.00 | 0.56 | 0.00 | 80 | 1008.3 |
| 20260510094103 | 59 | 101 | 3.0 | 7.0 | 0.00 | 0.56 | 0.00 | 80 | 1008.4 |
| 20260510094024 | 59 | 101 | 3.0 | 7.0 | 0.00 | 0.56 | 0.00 | 80 | 1008.3 |
| 20260510093903 | 59 | 103 | 3.0 | 7.0 | 0.00 | 0.56 | 0.00 | 81 | 1008.4 |
| 20260510093803 | 59 | 103 | 3.0 | 7.0 | 0.00 | 0.56 | 0.00 | 81 | 1008.4 |
| 20260510093703 | 59 | 107 | 3.0 | 7.0 | 0.00 | 0.56 | 0.00 | 81 | 1008.3 |
| 20260510093603 | 59 | 106 | 3.0 | 7.0 | 0.00 | 0.56 | 0.00 | 80 | 1008.3 |
| 20260510093503 | 59 | 105 | 3.0 | 7.0 | 0.00 | 0.56 | 0.00 | 80 | 1008.4 |
| 20260510093424 | 59 | 105 | 3.0 | 7.0 | 0.00 | 0.56 | 0.00 | 80 | 1008.4 |
| 20260510093303 | 59 | 102 | 3.0 | 7.0 | 0.00 | 0.56 | 0.00 | 81 | 1008.3 |
| 20260510093224 | 59 | 102 | 3.0 | 7.0 | 0.00 | 0.56 | 0.00 | 81 | 1008.3 |
| 20260510093103 | 59 | 103 | 3.0 | 7.0 | 0.00 | 0.56 | 0.00 | 81 | 1008.2 |
| 20260510093003 | 59 | 103 | 3.0 | 7.0 | 0.00 | 0.56 | 0.00 | 79 | 1008.5 |
| 20260510092903 | 59 | 101 | 3.0 | 7.0 | 0.00 | 0.56 | 0.00 | 80 | 1008.3 |
| 20260510092824 | 59 | 99 | 2.0 | 7.0 | 0.00 | 0.56 | 0.00 | 81 | 1008.3 |
| 20260510092703 | 59 | 100 | 2.0 | 7.0 | 0.00 | 0.56 | 0.00 | 80 | 1008.4 |
| 20260510092603 | 59 | 95 | 2.0 | 4.0 | 0.00 | 0.56 | 0.00 | 80 | 1008.5 |
| 20260510092503 | 59 | 96 | 2.0 | 4.0 | 0.00 | 0.56 | 0.00 | 80 | 1008.1 |
| 20260510092403 | 59 | 97 | 2.0 | 4.0 | 0.00 | 0.56 | 0.00 | 81 | 1008.5 |
| 20260510092306 | 59 | 101 | 2.0 | 4.0 | 0.00 | 0.56 | 0.00 | 81 | 1008.5 |
| 20260510092203 | 59 | 97 | 3.0 | 6.0 | 0.00 | 0.56 | 0.00 | 81 | 1008.3 |
| 20260510092103 | 59 | 102 | 3.0 | 6.0 | 0.00 | 0.56 | 0.00 | 81 | 1008.4 |
| 20260510092003 | 59 | 107 | 3.0 | 6.0 | 0.00 | 0.56 | 0.00 | 82 | 1008.5 |
| 20260510091903 | 59 | 112 | 3.0 | 7.0 | 0.00 | 0.56 | 0.00 | 81 | 1008.3 |
| 20260510091803 | 59 | 117 | 4.0 | 7.0 | 0.00 | 0.56 | 0.00 | 80 | 1008.2 |
| 20260510091703 | 59 | 115 | 4.0 | 7.0 | 0.00 | 0.56 | 0.00 | 81 | 1008.5 |
| 20260510091603 | 59 | 114 | 4.0 | 7.0 | 0.00 | 0.56 | 0.00 | 82 | 1008.4 |
| 20260510091503 | 59 | 115 | 4.0 | 7.0 | 0.00 | 0.56 | 0.00 | 82 | 1008.3 |
| 20260510091424 | 59 | 115 | 4.0 | 7.0 | 0.00 | 0.56 | 0.00 | 82 | 1008.3 |
| 20260510091303 | 59 | 115 | 4.0 | 7.0 | 0.00 | 0.56 | 0.00 | 82 | 1008.3 |
| 20260510091203 | 59 | 115 | 4.0 | 7.0 | 0.00 | 0.56 | 0.00 | 82 | 1008.3 |
| 20260510091103 | 58 | 118 | 4.0 | 7.0 | 0.00 | 0.56 | 0.00 | 81 | 1008.2 |
| 20260510091003 | 58 | 113 | 4.0 | 7.0 | 0.00 | 0.56 | 0.00 | 81 | 1008.4 |
| 20260510090903 | 58 | 111 | 4.0 | 7.0 | 0.00 | 0.56 | 0.00 | 82 | 1008.4 |
| 20260510090824 | 58 | 107 | 3.0 | 7.0 | 0.00 | 0.56 | 0.00 | 83 | 1008.1 |
| 20260510090724 | 58 | 99 | 3.0 | 6.0 | 0.00 | 0.56 | 0.00 | 83 | 1008.3 |
| 20260510090603 | 58 | 105 | 3.0 | 6.0 | 0.00 | 0.56 | 0.00 | 83 | 1008.3 |
| 20260510090503 | 58 | 103 | 3.0 | 6.0 | 0.00 | 0.56 | 0.00 | 83 | 1008.3 |
| 20260510090403 | 58 | 110 | 3.0 | 7.0 | 0.00 | 0.56 | 0.00 | 83 | 1008.4 |
| 20260510090303 | 58 | 109 | 4.0 | 7.0 | 0.00 | 0.56 | 0.00 | 83 | 1008.2 |
| 20260510090203 | 58 | 105 | 3.0 | 7.0 | 0.00 | 0.56 | 0.00 | 83 | 1008.1 |
| 20260510090024 | 58 | 107 | 3.0 | 7.0 | 0.00 | 0.56 | 0.00 | 82 | 1008.2 |
| 20260510085924 | 58 | 104 | 3.0 | 7.0 | 0.00 | 0.56 | 0.00 | 83 | 1008.1 |
| 20260510085803 | 58 | 100 | 3.0 | 7.0 | 0.00 | 0.56 | 0.00 | 84 | 1008.1 |
| 20260510085703 | 58 | 104 | 3.0 | 7.0 | 0.00 | 0.56 | 0.00 | 84 | 1008.2 |
| 20260510085624 | 58 | 104 | 3.0 | 7.0 | 0.00 | 0.56 | 0.00 | 84 | 1008.2 |
| 20260510085503 | 57 | 98 | 3.0 | 7.0 | 0.00 | 0.56 | 0.00 | 84 | 1008.1 |
| 20260510085403 | 57 | 97 | 3.0 | 7.0 | 0.00 | 0.56 | 0.00 | 83 | 1008.0 |
| 20260510085306 | 57 | 83 | 3.0 | 7.0 | 0.00 | 0.56 | 0.00 | 83 | 1008.1 |
| 20260510085203 | 57 | 76 | 2.0 | 4.0 | 0.00 | 0.56 | 0.00 | 84 | 1008.2 |
| 20260510085103 | 57 | 80 | 3.0 | 4.0 | 0.00 | 0.56 | 0.00 | 83 | 1008.2 |
| 20260510085003 | 57 | 82 | 3.0 | 7.0 | 0.00 | 0.56 | 0.00 | 84 | 1008.3 |
| 20260510084903 | 57 | 83 | 3.0 | 7.0 | 0.00 | 0.56 | 0.00 | 84 | 1008.1 |
| 20260510084803 | 57 | 84 | 3.0 | 7.0 | 0.00 | 0.56 | 0.00 | 85 | 1008.2 |
| 20260510084703 | 57 | 85 | 3.0 | 7.0 | 0.00 | 0.56 | 0.00 | 85 | 1008.2 |
| 20260510084603 | 57 | 81 | 3.0 | 7.0 | 0.00 | 0.56 | 0.00 | 84 | 1008.3 |
| 20260510084503 | 57 | 80 | 2.0 | 7.0 | 0.00 | 0.56 | 0.00 | 85 | 1008.1 |
| 20260510084403 | 57 | 77 | 2.0 | 7.0 | 0.00 | 0.56 | 0.00 | 84 | 1008.1 |
| 20260510084303 | 57 | 80 | 2.0 | 7.0 | 0.00 | 0.56 | 0.00 | 85 | 1008.0 |
| 20260510084203 | 57 | 80 | 2.0 | 7.0 | 0.00 | 0.56 | 0.00 | 84 | 1008.3 |
| 20260510084103 | 57 | 79 | 2.0 | 7.0 | 0.00 | 0.56 | 0.00 | 84 | 1008.2 |
| 20260510084024 | 57 | 79 | 2.0 | 7.0 | 0.00 | 0.56 | 0.00 | 84 | 1008.2 |
| 20260510083903 | 56 | 80 | 2.0 | 4.0 | 0.00 | 0.56 | 0.00 | 85 | 1008.1 |
| 20260510083803 | 56 | 80 | 2.0 | 4.0 | 0.00 | 0.56 | 0.00 | 85 | 1008.1 |
| 20260510083703 | 56 | 76 | 2.0 | 4.0 | 0.00 | 0.56 | 0.00 | 85 | 1008.2 |
| 20260510083624 | 56 | 76 | 2.0 | 4.0 | 0.00 | 0.56 | 0.00 | 85 | 1008.2 |
| 20260510083503 | 56 | 72 | 2.0 | 4.0 | 0.00 | 0.56 | 0.00 | 85 | 1008.1 |
| 20260510083403 | 56 | 71 | 2.0 | 4.0 | 0.00 | 0.56 | 0.00 | 85 | 1008.2 |
| 20260510083303 | 56 | 72 | 2.0 | 4.0 | 0.00 | 0.56 | 0.00 | 85 | 1008.1 |
| 20260510083224 | 56 | 70 | 2.0 | 4.0 | 0.00 | 0.56 | 0.00 | 85 | 1008.4 |
| 20260510083103 | 56 | 67 | 1.0 | 4.0 | 0.00 | 0.56 | 0.00 | 85 | 1008.1 |
| 20260510083003 | 56 | 65 | 1.0 | 4.0 | 0.00 | 0.56 | 0.00 | 85 | 1008.3 |
| 20260510082924 | 56 | 55 | 1.0 | 3.0 | 0.00 | 0.56 | 0.00 | 85 | 1008.1 |
| 20260510082803 | 56 | 52 | 1.0 | 3.0 | 0.00 | 0.56 | 0.00 | 85 | 1008.1 |
| 20260510082703 | 56 | 48 | 1.0 | 3.0 | 0.00 | 0.56 | 0.00 | 85 | 1008.1 |
| 20260510082603 | 56 | 50 | 1.0 | 3.0 | 0.00 | 0.56 | 0.00 | 85 | 1008.0 |
| 20260510082503 | 56 | 50 | 1.0 | 3.0 | 0.00 | 0.56 | 0.00 | 86 | 1008.2 |
| 20260510082403 | 56 | 49 | 1.0 | 3.0 | 0.00 | 0.56 | 0.00 | 85 | 1008.1 |
| 20260510082306 | 56 | 55 | 1.0 | 3.0 | 0.00 | 0.56 | 0.00 | 86 | 1008.0 |
| 20260510082203 | 56 | 58 | 1.0 | 3.0 | 0.00 | 0.56 | 0.00 | 86 | 1008.1 |
| 20260510082104 | 56 | 58 | 1.0 | 3.0 | 0.00 | 0.56 | 0.00 | 86 | 1008.2 |
| 20260510082003 | 56 | 54 | 1.0 | 3.0 | 0.00 | 0.56 | 0.00 | 86 | 1008.1 |
| 20260510081903 | 56 | 53 | 1.0 | 3.0 | 0.00 | 0.56 | 0.00 | 87 | 1008.1 |
| 20260510081803 | 56 | 55 | 1.0 | 3.0 | 0.00 | 0.56 | 0.00 | 87 | 1008.2 |
| 20260510081724 | 56 | 55 | 1.0 | 3.0 | 0.00 | 0.56 | 0.00 | 87 | 1008.2 |
| 20260510081624 | 56 | 54 | 1.0 | 3.0 | 0.00 | 0.56 | 0.00 | 87 | 1007.9 |
| 20260510081524 | 56 | 53 | 1.0 | 3.0 | 0.00 | 0.56 | 0.00 | 86 | 1007.9 |
| 20260510081403 | 55 | 53 | 1.0 | 3.0 | 0.00 | 0.56 | 0.00 | 86 | 1008.1 |
| 20260510081303 | 55 | 57 | 1.0 | 3.0 | 0.00 | 0.56 | 0.00 | 87 | 1008.2 |
| 20260510081224 | 55 | 53 | 1.0 | 2.0 | 0.00 | 0.56 | 0.00 | 87 | 1008.0 |
| 20260510081103 | 55 | 53 | 1.0 | 2.0 | 0.00 | 0.56 | 0.00 | 87 | 1008.0 |
| 20260510081003 | 55 | 54 | 1.0 | 2.0 | 0.00 | 0.56 | 0.00 | 88 | 1007.9 |
| 20260510080904 | 55 | 58 | 1.0 | 3.0 | 0.00 | 0.56 | 0.00 | 88 | 1008.1 |
| 20260510080803 | 55 | 58 | 1.0 | 3.0 | 0.00 | 0.56 | 0.00 | 88 | 1008.1 |
| 20260510080703 | 55 | 63 | 1.0 | 3.0 | 0.00 | 0.56 | 0.00 | 88 | 1008.1 |
| 20260510080603 | 55 | 66 | 2.0 | 3.0 | 0.00 | 0.56 | 0.00 | 88 | 1008.0 |
| 20260510080503 | 55 | 64 | 2.0 | 3.0 | 0.00 | 0.56 | 0.00 | 88 | 1008.1 |
| 20260510080403 | 55 | 67 | 2.0 | 3.0 | 0.00 | 0.56 | 0.00 | 88 | 1008.0 |
| 20260510080303 | 55 | 75 | 2.0 | 3.0 | 0.00 | 0.56 | 0.00 | 88 | 1007.9 |
| 20260510080203 | 55 | 81 | 2.0 | 3.0 | 0.00 | 0.56 | 0.00 | 88 | 1007.8 |
| 20260510080103 | 55 | 81 | 2.0 | 3.0 | 0.00 | 0.56 | 0.00 | 88 | 1007.8 |
| 20260510080003 | 55 | 80 | 2.0 | 3.0 | 0.00 | 0.56 | 0.00 | 89 | 1008.0 |
| 20260510075903 | 55 | 82 | 2.0 | 3.0 | 0.00 | 0.56 | 0.00 | 88 | 1008.0 |
| 20260510075803 | 55 | 82 | 2.0 | 3.0 | 0.00 | 0.56 | 0.00 | 89 | 1008.0 |
| 20260510075703 | 55 | 80 | 2.0 | 3.0 | 0.00 | 0.56 | 0.00 | 88 | 1008.1 |
| 20260510075603 | 54 | 74 | 2.0 | 3.0 | 0.00 | 0.56 | 0.00 | 88 | 1008.2 |
| 20260510075524 | 54 | 70 | 2.0 | 3.0 | 0.00 | 0.56 | 0.00 | 88 | 1007.9 |
| 20260510075403 | 54 | 72 | 2.0 | 3.0 | 0.00 | 0.56 | 0.00 | 88 | 1008.0 |
| 20260510075306 | 54 | 74 | 2.0 | 4.0 | 0.00 | 0.56 | 0.00 | 88 | 1008.2 |
| 20260510075203 | 54 | 69 | 2.0 | 4.0 | 0.00 | 0.56 | 0.00 | 88 | 1007.9 |
| 20260510075103 | 54 | 64 | 2.0 | 4.0 | 0.00 | 0.56 | 0.00 | 88 | 1007.9 |
| 20260510075024 | 54 | 66 | 2.0 | 4.0 | 0.00 | 0.56 | 0.00 | 88 | 1008.1 |
| 20260510074903 | 54 | 63 | 1.0 | 4.0 | 0.00 | 0.56 | 0.00 | 89 | 1008.0 |
| 20260510074803 | 54 | 63 | 1.0 | 4.0 | 0.00 | 0.56 | 0.00 | 89 | 1007.8 |
| 20260510074724 | 54 | 63 | 1.0 | 4.0 | 0.00 | 0.56 | 0.00 | 89 | 1007.8 |
| 20260510074603 | 54 | 65 | 1.0 | 4.0 | 0.00 | 0.56 | 0.00 | 89 | 1007.9 |
| 20260510074503 | 54 | 64 | 1.0 | 4.0 | 0.00 | 0.56 | 0.00 | 89 | 1007.8 |
| 20260510074403 | 54 | 64 | 1.0 | 4.0 | 0.00 | 0.56 | 0.00 | 89 | 1007.8 |
| 20260510074303 | 54 | 63 | 2.0 | 4.0 | 0.00 | 0.56 | 0.00 | 89 | 1008.0 |
| 20260510074203 | 54 | 59 | 1.0 | 4.0 | 0.00 | 0.56 | 0.00 | 89 | 1007.8 |
| 20260510074103 | 54 | 53 | 1.0 | 3.0 | 0.00 | 0.56 | 0.00 | 89 | 1008.0 |
| 20260510074003 | 54 | 51 | 1.0 | 3.0 | 0.00 | 0.56 | 0.00 | 89 | 1008.0 |
| 20260510073903 | 53 | 47 | 1.0 | 3.0 | 0.00 | 0.56 | 0.00 | 90 | 1008.2 |
| 20260510073803 | 53 | 47 | 1.0 | 3.0 | 0.00 | 0.56 | 0.00 | 90 | 1008.1 |
| 20260510073703 | 53 | 47 | 2.0 | 3.0 | 0.00 | 0.56 | 0.00 | 90 | 1008.0 |
| 20260510073603 | 53 | 48 | 2.0 | 3.0 | 0.00 | 0.56 | 0.00 | 90 | 1008.0 |
| 20260510073503 | 53 | 50 | 2.0 | 3.0 | 0.00 | 0.56 | 0.00 | 90 | 1008.2 |
| 20260510073403 | 53 | 53 | 2.0 | 2.0 | 0.00 | 0.56 | 0.00 | 90 | 1008.0 |
| 20260510073303 | 53 | 54 | 2.0 | 2.0 | 0.00 | 0.56 | 0.00 | 90 | 1008.0 |
| 20260510073224 | 53 | 54 | 2.0 | 2.0 | 0.00 | 0.56 | 0.00 | 90 | 1008.0 |
| 20260510073104 | 53 | 58 | 2.0 | 3.0 | 0.00 | 0.56 | 0.00 | 90 | 1008.0 |
| 20260510073003 | 53 | 58 | 2.0 | 3.0 | 0.00 | 0.56 | 0.00 | 90 | 1008.0 |
| 20260510072903 | 53 | 61 | 2.0 | 3.0 | 0.00 | 0.56 | 0.00 | 90 | 1008.0 |
| 20260510072803 | 53 | 64 | 2.0 | 3.0 | 0.00 | 0.56 | 0.00 | 90 | 1008.0 |
| 20260510072703 | 53 | 67 | 2.0 | 3.0 | 0.00 | 0.56 | 0.00 | 90 | 1007.8 |
| 20260510072603 | 53 | 68 | 2.0 | 4.0 | 0.00 | 0.56 | 0.00 | 90 | 1007.8 |
| 20260510072503 | 53 | 68 | 2.0 | 4.0 | 0.00 | 0.56 | 0.00 | 90 | 1007.8 |
| 20260510072407 | 53 | 74 | 2.0 | 4.0 | 0.00 | 0.56 | 0.00 | 90 | 1007.9 |
| 20260510072305 | 53 | 80 | 3.0 | 6.0 | 0.00 | 0.56 | 0.00 | 90 | 1007.8 |
| 20260510072203 | 53 | 78 | 3.0 | 6.0 | 0.00 | 0.56 | 0.00 | 89 | 1007.8 |
| 20260510072103 | 53 | 80 | 3.0 | 6.0 | 0.00 | 0.56 | 0.00 | 89 | 1008.0 |
| 20260510072003 | 53 | 84 | 3.0 | 6.0 | 0.00 | 0.56 | 0.00 | 89 | 1007.9 |
| 20260510071903 | 53 | 89 | 3.0 | 6.0 | 0.00 | 0.56 | 0.00 | 89 | 1008.2 |
| 20260510071803 | 53 | 84 | 3.0 | 6.0 | 0.00 | 0.56 | 0.00 | 89 | 1007.9 |
| 20260510071703 | 53 | 86 | 3.0 | 6.0 | 0.00 | 0.56 | 0.00 | 89 | 1008.0 |
| 20260510071603 | 53 | 90 | 3.0 | 6.0 | 0.00 | 0.56 | 0.00 | 89 | 1007.9 |
| 20260510071503 | 53 | 92 | 3.0 | 6.0 | 0.00 | 0.56 | 0.00 | 89 | 1007.8 |
| 20260510071426 | 53 | 88 | 3.0 | 6.0 | 0.00 | 0.56 | 0.00 | 89 | 1007.7 |
| 20260510071324 | 53 | 86 | 3.0 | 6.0 | 0.00 | 0.56 | 0.00 | 89 | 1007.8 |
| 20260510071203 | 53 | 88 | 3.0 | 6.0 | 0.00 | 0.56 | 0.00 | 89 | 1007.9 |
| 20260510071103 | 53 | 87 | 3.0 | 6.0 | 0.00 | 0.56 | 0.00 | 90 | 1007.8 |
| 20260510071003 | 53 | 85 | 3.0 | 6.0 | 0.00 | 0.56 | 0.00 | 90 | 1007.9 |
| 20260510070903 | 53 | 85 | 3.0 | 6.0 | 0.00 | 0.56 | 0.00 | 90 | 1007.9 |
| 20260510070824 | 53 | 81 | 3.0 | 6.0 | 0.00 | 0.56 | 0.00 | 90 | 1007.9 |
| 20260510070724 | 53 | 86 | 3.0 | 4.0 | 0.00 | 0.56 | 0.00 | 90 | 1007.8 |
| 20260510070603 | 53 | 83 | 3.0 | 4.0 | 0.00 | 0.56 | 0.00 | 90 | 1007.7 |
| 20260510070503 | 53 | 76 | 3.0 | 4.0 | 0.00 | 0.56 | 0.00 | 90 | 1007.9 |
| 20260510070403 | 53 | 73 | 2.0 | 4.0 | 0.00 | 0.56 | 0.00 | 90 | 1007.9 |
| 20260510070303 | 53 | 73 | 2.0 | 3.0 | 0.00 | 0.56 | 0.00 | 90 | 1007.8 |
| 20260510070203 | 53 | 70 | 2.0 | 3.0 | 0.00 | 0.56 | 0.00 | 90 | 1007.9 |
| 20260510070103 | 53 | 70 | 2.0 | 3.0 | 0.00 | 0.56 | 0.00 | 90 | 1008.0 |
| 20260510070003 | 53 | 68 | 2.0 | 3.0 | 0.00 | 0.56 | 0.00 | 90 | 1007.9 |
| 20260510065924 | 53 | 66 | 2.0 | 3.0 | 0.00 | 0.56 | 0.00 | 89 | 1007.7 |
| 20260510065803 | 53 | 73 | 2.0 | 4.0 | 0.00 | 0.56 | 0.00 | 89 | 1008.0 |
| 20260510065703 | 53 | 72 | 2.0 | 4.0 | 0.00 | 0.56 | 0.00 | 89 | 1007.9 |
| 20260510065603 | 53 | 73 | 2.0 | 4.0 | 0.00 | 0.56 | 0.00 | 89 | 1007.8 |
| 20260510065503 | 53 | 74 | 2.0 | 4.0 | 0.00 | 0.56 | 0.00 | 89 | 1007.9 |
| 20260510065403 | 53 | 80 | 2.0 | 4.0 | 0.00 | 0.56 | 0.00 | 89 | 1007.9 |
| 20260510065306 | 53 | 89 | 2.0 | 4.0 | 0.00 | 0.56 | 0.00 | 88 | 1007.9 |
| 20260510065224 | 53 | 89 | 2.0 | 4.0 | 0.00 | 0.56 | 0.00 | 88 | 1007.9 |
| 20260510065103 | 53 | 89 | 2.0 | 4.0 | 0.00 | 0.56 | 0.00 | 88 | 1007.7 |
| 20260510065003 | 53 | 90 | 2.0 | 4.0 | 0.00 | 0.56 | 0.00 | 88 | 1007.8 |
| 20260510064924 | 53 | 95 | 2.0 | 4.0 | 0.00 | 0.56 | 0.00 | 88 | 1007.6 |
| 20260510064803 | 53 | 93 | 2.0 | 4.0 | 0.00 | 0.56 | 0.00 | 88 | 1007.7 |
| 20260510064703 | 53 | 87 | 2.0 | 4.0 | 0.00 | 0.56 | 0.00 | 88 | 1007.7 |
| 20260510064603 | 53 | 88 | 2.0 | 4.0 | 0.00 | 0.56 | 0.00 | 88 | 1007.8 |
| 20260510064503 | 53 | 86 | 2.0 | 4.0 | 0.00 | 0.56 | 0.00 | 88 | 1007.6 |
| 20260510064424 | 53 | 86 | 2.0 | 4.0 | 0.00 | 0.56 | 0.00 | 88 | 1007.6 |
| 20260510064303 | 53 | 77 | 2.0 | 4.0 | 0.00 | 0.56 | 0.00 | 89 | 1007.8 |
| 20260510064203 | 53 | 64 | 2.0 | 3.0 | 0.00 | 0.56 | 0.00 | 89 | 1007.8 |
| 20260510064103 | 53 | 63 | 2.0 | 3.0 | 0.00 | 0.56 | 0.00 | 89 | 1007.9 |
| 20260510064024 | 53 | 63 | 2.0 | 3.0 | 0.00 | 0.56 | 0.00 | 89 | 1007.9 |
| 20260510063924 | 53 | 62 | 2.0 | 3.0 | 0.00 | 0.56 | 0.00 | 89 | 1007.9 |
| 20260510063824 | 53 | 56 | 2.0 | 3.0 | 0.00 | 0.56 | 0.00 | 90 | 1007.8 |
| 20260510063703 | 53 | 59 | 2.0 | 3.0 | 0.00 | 0.56 | 0.00 | 90 | 1007.7 |
| 20260510063603 | 53 | 60 | 2.0 | 3.0 | 0.00 | 0.56 | 0.00 | 90 | 1007.8 |
| 20260510063503 | 53 | 65 | 2.0 | 3.0 | 0.00 | 0.56 | 0.00 | 90 | 1007.8 |
| 20260510063424 | 53 | 66 | 2.0 | 3.0 | 0.00 | 0.56 | 0.00 | 90 | 1007.9 |
| 20260510063324 | 53 | 66 | 2.0 | 3.0 | 0.00 | 0.56 | 0.00 | 90 | 1007.9 |
| 20260510063224 | 53 | 67 | 2.0 | 3.0 | 0.00 | 0.56 | 0.00 | 90 | 1007.8 |
| 20260510063124 | 53 | 70 | 2.0 | 3.0 | 0.00 | 0.56 | 0.00 | 89 | 1007.8 |
| 20260510063024 | 53 | 73 | 2.0 | 3.0 | 0.00 | 0.56 | 0.00 | 89 | 1007.8 |
| 20260510062924 | 53 | 79 | 2.0 | 3.0 | 0.00 | 0.56 | 0.00 | 89 | 1007.9 |
| 20260510062803 | 53 | 83 | 3.0 | 6.0 | 0.00 | 0.56 | 0.00 | 89 | 1007.8 |
| 20260510062703 | 53 | 82 | 3.0 | 6.0 | 0.00 | 0.56 | 0.00 | 89 | 1007.7 |
| 20260510062603 | 53 | 87 | 3.0 | 6.0 | 0.00 | 0.56 | 0.00 | 89 | 1007.4 |
| 20260510062503 | 53 | 83 | 2.0 | 6.0 | 0.00 | 0.56 | 0.00 | 89 | 1007.7 |
| 20260510062403 | 53 | 83 | 2.0 | 6.0 | 0.00 | 0.56 | 0.00 | 89 | 1007.6 |
| 20260510062306 | 53 | 89 | 3.0 | 6.0 | 0.00 | 0.56 | 0.00 | 89 | 1007.7 |
| 20260510062203 | 53 | 89 | 3.0 | 6.0 | 0.00 | 0.56 | 0.00 | 89 | 1007.6 |
| 20260510062103 | 53 | 89 | 3.0 | 6.0 | 0.00 | 0.56 | 0.00 | 89 | 1007.6 |
| 20260510062003 | 53 | 86 | 3.0 | 6.0 | 0.00 | 0.56 | 0.00 | 89 | 1007.6 |
| 20260510061903 | 53 | 85 | 2.0 | 6.0 | 0.00 | 0.56 | 0.00 | 89 | 1007.7 |
| 20260510061803 | 53 | 79 | 2.0 | 6.0 | 0.00 | 0.56 | 0.00 | 89 | 1007.5 |
| 20260510061703 | 53 | 74 | 2.0 | 4.0 | 0.00 | 0.56 | 0.00 | 89 | 1007.6 |
| 20260510061603 | 53 | 75 | 2.0 | 4.0 | 0.00 | 0.56 | 0.00 | 89 | 1007.5 |
| 20260510061524 | 53 | 65 | 2.0 | 4.0 | 0.00 | 0.56 | 0.00 | 89 | 1007.7 |
| 20260510061424 | 53 | 65 | 2.0 | 4.0 | 0.00 | 0.56 | 0.00 | 89 | 1007.6 |
| 20260510061303 | 52 | 68 | 2.0 | 4.0 | 0.00 | 0.56 | 0.00 | 89 | 1007.7 |
| 20260510061224 | 52 | 65 | 2.0 | 3.0 | 0.00 | 0.56 | 0.00 | 89 | 1007.5 |
| 20260510061103 | 52 | 66 | 2.0 | 3.0 | 0.00 | 0.56 | 0.00 | 89 | 1007.6 |
| 20260510061003 | 52 | 68 | 2.0 | 3.0 | 0.00 | 0.56 | 0.00 | 89 | 1007.5 |
| 20260510060903 | 52 | 72 | 2.0 | 3.0 | 0.00 | 0.56 | 0.00 | 89 | 1007.4 |
| 20260510060803 | 52 | 83 | 2.0 | 6.0 | 0.00 | 0.56 | 0.00 | 89 | 1007.6 |
| 20260510060703 | 52 | 84 | 2.0 | 6.0 | 0.00 | 0.56 | 0.00 | 89 | 1007.7 |
| 20260510060603 | 52 | 92 | 2.0 | 6.0 | 0.00 | 0.56 | 0.00 | 89 | 1007.5 |
| 20260510060503 | 53 | 96 | 3.0 | 6.0 | 0.00 | 0.56 | 0.00 | 89 | 1007.5 |
| 20260510060424 | 53 | 96 | 3.0 | 6.0 | 0.00 | 0.56 | 0.00 | 89 | 1007.5 |
| 20260510060324 | 53 | 97 | 3.0 | 6.0 | 0.00 | 0.56 | 0.00 | 89 | 1007.5 |
| 20260510060224 | 53 | 95 | 2.0 | 6.0 | 0.00 | 0.56 | 0.00 | 89 | 1007.5 |
| 20260510060003 | 53 | 98 | 3.0 | 6.0 | 0.00 | 0.56 | 0.00 | 88 | 1007.6 |
| 20260510055903 | 53 | 96 | 3.0 | 6.0 | 0.00 | 0.56 | 0.00 | 88 | 1007.4 |
| 20260510055803 | 52 | 94 | 3.0 | 6.0 | 0.00 | 0.56 | 0.00 | 89 | 1007.6 |
| 20260510055703 | 52 | 89 | 2.0 | 4.0 | 0.00 | 0.56 | 0.00 | 89 | 1007.5 |
| 20260510055603 | 52 | 92 | 2.0 | 4.0 | 0.00 | 0.56 | 0.00 | 89 | 1007.6 |
| 20260510055503 | 52 | 82 | 2.0 | 4.0 | 0.00 | 0.56 | 0.00 | 89 | 1007.5 |
| 20260510055403 | 52 | 83 | 2.0 | 4.0 | 0.00 | 0.56 | 0.00 | 89 | 1007.4 |
| 20260510055306 | 52 | 82 | 2.0 | 4.0 | 0.00 | 0.56 | 0.00 | 89 | 1007.5 |
| 20260510055203 | 52 | 83 | 2.0 | 4.0 | 0.00 | 0.56 | 0.00 | 89 | 1007.7 |
| 20260510055124 | 52 | 82 | 2.0 | 4.0 | 0.00 | 0.56 | 0.00 | 89 | 1007.5 |
| 20260510055003 | 52 | 88 | 3.0 | 7.0 | 0.00 | 0.56 | 0.00 | 89 | 1007.5 |
| 20260510054902 | 52 | 84 | 3.0 | 7.0 | 0.00 | 0.56 | 0.00 | 89 | 1007.4 |
| 20260510054803 | 52 | 85 | 3.0 | 7.0 | 0.00 | 0.56 | 0.00 | 89 | 1007.5 |
| 20260510054702 | 52 | 84 | 3.0 | 7.0 | 0.00 | 0.56 | 0.00 | 89 | 1007.5 |
| 20260510054603 | 52 | 90 | 3.0 | 7.0 | 0.00 | 0.56 | 0.00 | 89 | 1007.4 |
| 20260510054502 | 52 | 93 | 3.0 | 7.0 | 0.00 | 0.56 | 0.00 | 89 | 1007.5 |
| 20260510054403 | 52 | 93 | 3.0 | 7.0 | 0.00 | 0.56 | 0.00 | 89 | 1007.5 |
| 20260510054302 | 52 | 95 | 3.0 | 7.0 | 0.00 | 0.56 | 0.00 | 89 | 1007.5 |
| 20260510054202 | 52 | 102 | 3.0 | 7.0 | 0.00 | 0.56 | 0.00 | 89 | 1007.4 |
| 20260510054103 | 52 | 93 | 4.0 | 7.0 | 0.00 | 0.56 | 0.00 | 89 | 1007.4 |
| 20260510054002 | 52 | 91 | 4.0 | 7.0 | 0.00 | 0.56 | 0.00 | 89 | 1007.2 |
| 20260510053903 | 52 | 96 | 4.0 | 8.0 | 0.00 | 0.56 | 0.00 | 89 | 1007.3 |
| 20260510053803 | 52 | 102 | 4.0 | 8.0 | 0.00 | 0.56 | 0.00 | 89 | 1007.4 |
| 20260510053702 | 52 | 109 | 4.0 | 8.0 | 0.00 | 0.56 | 0.00 | 89 | 1007.3 |
| 20260510053603 | 52 | 109 | 4.0 | 8.0 | 0.00 | 0.56 | 0.00 | 89 | 1007.4 |
| 20260510053502 | 52 | 109 | 4.0 | 8.0 | 0.00 | 0.56 | 0.00 | 89 | 1007.2 |
| 20260510053402 | 52 | 111 | 4.0 | 8.0 | 0.00 | 0.56 | 0.00 | 89 | 1007.5 |
| 20260510053303 | 52 | 114 | 4.0 | 8.0 | 0.00 | 0.56 | 0.00 | 89 | 1007.3 |
| 20260510053202 | 52 | 113 | 4.0 | 8.0 | 0.00 | 0.56 | 0.00 | 89 | 1007.3 |
| 20260510053103 | 52 | 118 | 4.0 | 8.0 | 0.00 | 0.56 | 0.00 | 89 | 1007.3 |
| 20260510053003 | 52 | 121 | 4.0 | 8.0 | 0.00 | 0.56 | 0.00 | 89 | 1007.3 |
| 20260510052902 | 52 | 113 | 3.0 | 7.0 | 0.00 | 0.56 | 0.00 | 89 | 1007.1 |
| 20260510052802 | 52 | 113 | 3.0 | 7.0 | 0.00 | 0.56 | 0.00 | 89 | 1007.1 |
| 20260510052702 | 52 | 113 | 3.0 | 7.0 | 0.00 | 0.56 | 0.00 | 90 | 1007.3 |
| 20260510052602 | 52 | 105 | 2.0 | 7.0 | 0.00 | 0.56 | 0.00 | 90 | 1007.2 |
| 20260510052503 | 52 | 104 | 2.0 | 7.0 | 0.00 | 0.56 | 0.00 | 90 | 1007.2 |
| 20260510052402 | 52 | 95 | 2.0 | 7.0 | 0.00 | 0.56 | 0.00 | 90 | 1007.2 |
| 20260510052306 | 52 | 85 | 1.0 | 7.0 | 0.00 | 0.56 | 0.00 | 90 | 1007.3 |
| 20260510052202 | 52 | 58 | 1.0 | 3.0 | 0.00 | 0.56 | 0.00 | 90 | 1007.2 |
| 20260510052103 | 52 | 57 | 1.0 | 3.0 | 0.00 | 0.56 | 0.00 | 90 | 1007.2 |
| 20260510052003 | 52 | 58 | 1.0 | 3.0 | 0.00 | 0.56 | 0.00 | 90 | 1007.1 |
| 20260510051903 | 52 | 51 | 1.0 | 4.0 | 0.00 | 0.56 | 0.00 | 90 | 1007.2 |
| 20260510051803 | 52 | 52 | 1.0 | 4.0 | 0.00 | 0.56 | 0.00 | 90 | 1007.1 |
| 20260510051702 | 52 | 59 | 1.0 | 4.0 | 0.00 | 0.56 | 0.00 | 90 | 1007.2 |
| 20260510051603 | 52 | 75 | 2.0 | 6.0 | 0.00 | 0.56 | 0.00 | 90 | 1007.1 |
| 20260510051502 | 52 | 81 | 2.0 | 6.0 | 0.00 | 0.56 | 0.00 | 90 | 1007.1 |
| 20260510051403 | 52 | 80 | 2.0 | 6.0 | 0.00 | 0.56 | 0.00 | 90 | 1007.2 |
| 20260510051303 | 52 | 79 | 2.0 | 6.0 | 0.00 | 0.56 | 0.00 | 90 | 1007.0 |
| 20260510051203 | 52 | 79 | 2.0 | 6.0 | 0.00 | 0.56 | 0.00 | 90 | 1007.0 |
| 20260510051102 | 52 | 85 | 2.0 | 6.0 | 0.00 | 0.56 | 0.00 | 89 | 1007.1 |
| 20260510051003 | 52 | 82 | 2.0 | 6.0 | 0.00 | 0.56 | 0.00 | 89 | 1007.2 |
| 20260510050902 | 52 | 78 | 3.0 | 7.0 | 0.00 | 0.56 | 0.00 | 89 | 1007.1 |
| 20260510050803 | 52 | 91 | 3.0 | 7.0 | 0.00 | 0.56 | 0.00 | 89 | 1007.2 |
| 20260510050702 | 52 | 89 | 3.0 | 7.0 | 0.00 | 0.56 | 0.00 | 89 | 1007.1 |
| 20260510050602 | 52 | 89 | 3.0 | 7.0 | 0.00 | 0.56 | 0.00 | 90 | 1007.1 |
| 20260510050503 | 52 | 77 | 3.0 | 7.0 | 0.00 | 0.56 | 0.00 | 90 | 1007.0 |
| 20260510050403 | 52 | 75 | 3.0 | 7.0 | 0.00 | 0.56 | 0.00 | 90 | 1007.0 |
| 20260510050323 | 52 | 81 | 3.0 | 7.0 | 0.00 | 0.56 | 0.00 | 90 | 1007.1 |
| 20260510050202 | 52 | 87 | 3.0 | 7.0 | 0.00 | 0.56 | 0.00 | 90 | 1007.2 |
| 20260510050003 | 52 | 85 | 3.0 | 7.0 | 0.00 | 0.56 | 0.00 | 90 | 1007.1 |
| 20260510045903 | 52 | 97 | 3.0 | 6.0 | 0.00 | 0.56 | 0.00 | 90 | 1006.9 |
| 20260510045803 | 52 | 99 | 3.0 | 6.0 | 0.00 | 0.56 | 0.00 | 90 | 1007.2 |
| 20260510045702 | 52 | 99 | 3.0 | 6.0 | 0.00 | 0.56 | 0.00 | 90 | 1007.2 |
| 20260510045602 | 52 | 99 | 3.0 | 6.0 | 0.00 | 0.56 | 0.00 | 90 | 1007.1 |
| 20260510045503 | 52 | 94 | 3.0 | 6.0 | 0.00 | 0.56 | 0.00 | 90 | 1007.1 |
| 20260510045403 | 52 | 97 | 3.0 | 6.0 | 0.00 | 0.56 | 0.00 | 90 | 1007.0 |
| 20260510045306 | 52 | 93 | 3.0 | 6.0 | 0.00 | 0.56 | 0.00 | 90 | 1006.9 |
| 20260510045223 | 52 | 93 | 3.0 | 6.0 | 0.00 | 0.56 | 0.00 | 90 | 1006.9 |
| 20260510045103 | 52 | 87 | 3.0 | 6.0 | 0.00 | 0.56 | 0.00 | 90 | 1007.1 |
| 20260510045002 | 52 | 89 | 3.0 | 6.0 | 0.00 | 0.56 | 0.00 | 90 | 1007.2 |
| 20260510044902 | 52 | 90 | 3.0 | 6.0 | 0.00 | 0.56 | 0.00 | 90 | 1007.2 |
| 20260510044803 | 52 | 82 | 2.0 | 6.0 | 0.00 | 0.56 | 0.00 | 90 | 1007.1 |
| 20260510044724 | 52 | 74 | 2.0 | 4.0 | 0.00 | 0.56 | 0.00 | 90 | 1007.0 |
| 20260510044603 | 52 | 75 | 2.0 | 4.0 | 0.00 | 0.56 | 0.00 | 90 | 1007.1 |
| 20260510044503 | 52 | 79 | 2.0 | 4.0 | 0.00 | 0.56 | 0.00 | 90 | 1006.9 |
| 20260510044403 | 52 | 88 | 3.0 | 7.0 | 0.00 | 0.56 | 0.00 | 90 | 1007.1 |
| 20260510044303 | 52 | 92 | 3.0 | 7.0 | 0.00 | 0.56 | 0.00 | 90 | 1007.1 |
| 20260510044202 | 52 | 94 | 3.0 | 7.0 | 0.00 | 0.56 | 0.00 | 90 | 1007.1 |
| 20260510044103 | 52 | 95 | 3.0 | 7.0 | 0.00 | 0.56 | 0.00 | 90 | 1007.1 |
| 20260510044002 | 52 | 95 | 3.0 | 7.0 | 0.00 | 0.56 | 0.00 | 90 | 1007.1 |
| 20260510043923 | 52 | 105 | 4.0 | 8.0 | 0.00 | 0.56 | 0.00 | 90 | 1007.1 |
| 20260510043823 | 52 | 105 | 4.0 | 8.0 | 0.00 | 0.56 | 0.00 | 89 | 1007.2 |
| 20260510043702 | 52 | 107 | 4.0 | 8.0 | 0.00 | 0.56 | 0.00 | 89 | 1007.1 |
| 20260510043602 | 52 | 103 | 4.0 | 8.0 | 0.00 | 0.56 | 0.00 | 90 | 1007.2 |
| 20260510043503 | 52 | 105 | 4.0 | 8.0 | 0.00 | 0.56 | 0.00 | 89 | 1007.1 |
| 20260510043403 | 52 | 107 | 4.0 | 8.0 | 0.00 | 0.56 | 0.00 | 89 | 1007.2 |
| 20260510043323 | 52 | 101 | 4.0 | 8.0 | 0.00 | 0.56 | 0.00 | 89 | 1007.2 |
| 20260510043203 | 52 | 99 | 4.0 | 8.0 | 0.00 | 0.56 | 0.00 | 89 | 1007.0 |
| 20260510043102 | 52 | 97 | 4.0 | 8.0 | 0.00 | 0.56 | 0.00 | 89 | 1007.3 |
| 20260510043002 | 52 | 100 | 4.0 | 8.0 | 0.00 | 0.56 | 0.00 | 90 | 1007.3 |
| 20260510042902 | 52 | 93 | 3.0 | 7.0 | 0.00 | 0.56 | 0.00 | 89 | 1007.0 |
| 20260510042824 | 52 | 93 | 3.0 | 7.0 | 0.00 | 0.56 | 0.00 | 89 | 1007.0 |
| 20260510042703 | 52 | 92 | 3.0 | 7.0 | 0.00 | 0.56 | 0.00 | 89 | 1007.1 |
| 20260510042602 | 52 | 97 | 3.0 | 7.0 | 0.00 | 0.56 | 0.00 | 90 | 1007.3 |
| 20260510042502 | 52 | 102 | 3.0 | 6.0 | 0.00 | 0.56 | 0.00 | 90 | 1007.3 |
| 20260510042402 | 52 | 100 | 3.0 | 6.0 | 0.00 | 0.56 | 0.00 | 90 | 1007.2 |
| 20260510042305 | 52 | 102 | 3.0 | 6.0 | 0.00 | 0.56 | 0.00 | 90 | 1007.1 |
| 20260510042202 | 52 | 105 | 3.0 | 6.0 | 0.00 | 0.56 | 0.00 | 90 | 1007.2 |
| 20260510042103 | 52 | 105 | 3.0 | 6.0 | 0.00 | 0.56 | 0.00 | 90 | 1007.2 |
| 20260510042002 | 52 | 104 | 3.0 | 6.0 | 0.00 | 0.56 | 0.00 | 90 | 1007.1 |
| 20260510041924 | 52 | 99 | 3.0 | 6.0 | 0.00 | 0.56 | 0.00 | 91 | 1007.3 |
| 20260510041804 | 52 | 94 | 3.0 | 6.0 | 0.00 | 0.56 | 0.00 | 91 | 1007.3 |
| 20260510041703 | 52 | 90 | 2.0 | 6.0 | 0.00 | 0.56 | 0.00 | 91 | 1007.2 |
| 20260510041603 | 52 | 92 | 2.0 | 6.0 | 0.00 | 0.56 | 0.00 | 91 | 1007.1 |
| 20260510041503 | 52 | 91 | 2.0 | 6.0 | 0.00 | 0.56 | 0.00 | 91 | 1007.3 |
| 20260510041402 | 52 | 78 | 2.0 | 3.0 | 0.00 | 0.56 | 0.00 | 90 | 1007.3 |
| 20260510041302 | 52 | 72 | 2.0 | 3.0 | 0.00 | 0.56 | 0.00 | 90 | 1007.4 |
| 20260510041223 | 52 | 70 | 2.0 | 3.0 | 0.00 | 0.56 | 0.00 | 90 | 1007.3 |
| 20260510041102 | 52 | 64 | 2.0 | 3.0 | 0.00 | 0.56 | 0.00 | 90 | 1007.2 |
| 20260510041024 | 52 | 64 | 2.0 | 3.0 | 0.00 | 0.56 | 0.00 | 90 | 1007.2 |
| 20260510040903 | 52 | 64 | 2.0 | 3.0 | 0.00 | 0.56 | 0.00 | 90 | 1007.2 |
| 20260510040803 | 52 | 61 | 2.0 | 3.0 | 0.00 | 0.56 | 0.00 | 90 | 1007.2 |
| 20260510040724 | 52 | 61 | 2.0 | 3.0 | 0.00 | 0.56 | 0.00 | 90 | 1007.2 |
| 20260510040624 | 52 | 59 | 2.0 | 2.0 | 0.00 | 0.56 | 0.00 | 90 | 1007.3 |
| 20260510040503 | 52 | 61 | 2.0 | 3.0 | 0.00 | 0.56 | 0.00 | 90 | 1007.2 |
| 20260510040402 | 53 | 61 | 2.0 | 3.0 | 0.00 | 0.56 | 0.00 | 89 | 1007.2 |
| 20260510040302 | 53 | 69 | 2.0 | 3.0 | 0.00 | 0.56 | 0.00 | 89 | 1007.4 |
| 20260510040203 | 53 | 69 | 2.0 | 3.0 | 0.00 | 0.56 | 0.00 | 89 | 1007.2 |
| 20260510040003 | 53 | 82 | 2.0 | 3.0 | 0.00 | 0.56 | 0.00 | 89 | 1007.1 |
| 20260510035924 | 53 | 81 | 2.0 | 4.0 | 0.00 | 0.56 | 0.00 | 88 | 1007.2 |
| 20260510035803 | 53 | 82 | 2.0 | 4.0 | 0.00 | 0.56 | 0.00 | 88 | 1007.3 |
| 20260510035703 | 53 | 81 | 2.0 | 4.0 | 0.00 | 0.56 | 0.00 | 89 | 1007.2 |
| 20260510035602 | 53 | 85 | 2.0 | 4.0 | 0.00 | 0.56 | 0.00 | 89 | 1007.2 |
| 20260510035523 | 53 | 83 | 2.0 | 4.0 | 0.00 | 0.56 | 0.00 | 89 | 1007.3 |
| 20260510035402 | 53 | 82 | 2.0 | 4.0 | 0.00 | 0.56 | 0.00 | 89 | 1007.2 |
| 20260510035306 | 53 | 82 | 2.0 | 4.0 | 0.00 | 0.56 | 0.00 | 89 | 1007.1 |
| 20260510035223 | 53 | 73 | 2.0 | 4.0 | 0.00 | 0.56 | 0.00 | 89 | 1007.3 |
| 20260510035124 | 53 | 69 | 2.0 | 4.0 | 0.00 | 0.56 | 0.00 | 89 | 1007.1 |
| 20260510035003 | 53 | 58 | 1.0 | 4.0 | 0.00 | 0.56 | 0.00 | 89 | 1007.3 |
| 20260510034903 | 53 | 54 | 1.0 | 2.0 | 0.00 | 0.56 | 0.00 | 89 | 1007.1 |
| 20260510034803 | 53 | 54 | 1.0 | 2.0 | 0.00 | 0.56 | 0.00 | 89 | 1007.3 |
| 20260510034703 | 53 | 55 | 1.0 | 2.0 | 0.00 | 0.56 | 0.00 | 89 | 1007.3 |
| 20260510034603 | 53 | 55 | 1.0 | 2.0 | 0.00 | 0.56 | 0.00 | 89 | 1007.3 |
| 20260510034503 | 53 | 55 | 1.0 | 2.0 | 0.00 | 0.56 | 0.00 | 90 | 1007.2 |
| 20260510034402 | 53 | 58 | 1.0 | 2.0 | 0.00 | 0.56 | 0.00 | 90 | 1007.3 |
| 20260510034302 | 53 | 56 | 1.0 | 2.0 | 0.00 | 0.56 | 0.00 | 90 | 1007.5 |
| 20260510034202 | 53 | 56 | 1.0 | 2.0 | 0.00 | 0.56 | 0.00 | 90 | 1007.4 |
| 20260510034102 | 53 | 58 | 1.0 | 2.0 | 0.00 | 0.56 | 0.00 | 90 | 1007.4 |
| 20260510034024 | 53 | 70 | 1.0 | 4.0 | 0.00 | 0.56 | 0.00 | 90 | 1007.4 |
| 20260510033902 | 53 | 70 | 2.0 | 4.0 | 0.00 | 0.56 | 0.00 | 90 | 1007.4 |
| 20260510033803 | 53 | 89 | 2.0 | 7.0 | 0.00 | 0.56 | 0.00 | 90 | 1007.3 |
| 20260510033703 | 53 | 89 | 2.0 | 7.0 | 0.00 | 0.56 | 0.00 | 90 | 1007.3 |
| 20260510033603 | 53 | 89 | 2.0 | 7.0 | 0.00 | 0.56 | 0.00 | 90 | 1007.4 |
| 20260510033503 | 53 | 89 | 2.0 | 7.0 | 0.00 | 0.56 | 0.00 | 90 | 1007.3 |
| 20260510033403 | 53 | 89 | 2.0 | 7.0 | 0.00 | 0.56 | 0.00 | 90 | 1007.3 |
| 20260510033303 | 53 | 92 | 2.0 | 7.0 | 0.00 | 0.56 | 0.00 | 90 | 1007.3 |
| 20260510033203 | 53 | 96 | 3.0 | 7.0 | 0.00 | 0.56 | 0.00 | 90 | 1007.4 |
| 20260510033103 | 53 | 95 | 3.0 | 7.0 | 0.00 | 0.56 | 0.00 | 91 | 1007.3 |
| 20260510033003 | 53 | 88 | 3.0 | 7.0 | 0.00 | 0.56 | 0.00 | 91 | 1007.1 |
| 20260510032903 | 53 | 97 | 3.0 | 7.0 | 0.00 | 0.56 | 0.00 | 91 | 1007.4 |
| 20260510032802 | 53 | 86 | 3.0 | 7.0 | 0.00 | 0.56 | 0.00 | 91 | 1007.2 |
| 20260510032703 | 53 | 92 | 3.0 | 7.0 | 0.00 | 0.56 | 0.00 | 91 | 1007.4 |
| 20260510032603 | 53 | 96 | 3.0 | 7.0 | 0.00 | 0.56 | 0.00 | 91 | 1007.3 |
| 20260510032524 | 53 | 96 | 3.0 | 7.0 | 0.00 | 0.56 | 0.00 | 91 | 1007.3 |
| 20260510032402 | 52 | 98 | 3.0 | 7.0 | 0.00 | 0.56 | 0.00 | 91 | 1007.4 |
| 20260510032305 | 52 | 99 | 3.0 | 7.0 | 0.00 | 0.56 | 0.00 | 92 | 1007.3 |
| 20260510032203 | 52 | 98 | 3.0 | 7.0 | 0.00 | 0.56 | 0.00 | 92 | 1007.2 |
| 20260510032102 | 52 | 93 | 2.0 | 7.0 | 0.00 | 0.56 | 0.00 | 92 | 1007.2 |
| 20260510032002 | 52 | 96 | 2.0 | 7.0 | 0.00 | 0.56 | 0.00 | 92 | 1007.3 |
| 20260510031902 | 52 | 97 | 2.0 | 7.0 | 0.00 | 0.56 | 0.00 | 93 | 1007.2 |
| 20260510031803 | 52 | 89 | 2.0 | 7.0 | 0.00 | 0.56 | 0.00 | 94 | 1007.3 |
| 20260510031723 | 52 | 91 | 2.0 | 7.0 | 0.00 | 0.56 | 0.00 | 95 | 1007.3 |
| 20260510031602 | 52 | 99 | 3.0 | 9.0 | 0.00 | 0.56 | 0.00 | 95 | 1007.3 |
| 20260510031524 | 52 | 97 | 3.0 | 9.0 | 0.00 | 0.56 | 0.00 | 96 | 1007.1 |
| 20260510031423 | 52 | 97 | 3.0 | 9.0 | 0.00 | 0.56 | 0.00 | 96 | 1007.2 |
| 20260510031324 | 52 | 99 | 3.0 | 9.0 | 0.00 | 0.56 | 0.00 | 96 | 1007.3 |
| 20260510031202 | 52 | 99 | 3.0 | 9.0 | 0.00 | 0.56 | 0.00 | 97 | 1007.3 |
| 20260510031103 | 52 | 101 | 3.0 | 9.0 | 0.00 | 0.56 | 0.00 | 97 | 1007.2 |
| 20260510031002 | 52 | 99 | 3.0 | 9.0 | 0.00 | 0.56 | 0.00 | 98 | 1007.2 |
| 20260510030902 | 52 | 99 | 3.0 | 9.0 | 0.00 | 0.56 | 0.00 | 98 | 1007.2 |
| 20260510030803 | 51 | 100 | 3.0 | 9.0 | 0.00 | 0.56 | 0.00 | 98 | 1007.2 |
| 20260510030703 | 51 | 108 | 3.0 | 9.0 | 0.00 | 0.56 | 0.00 | 99 | 1007.2 |
| 20260510030603 | 51 | 113 | 3.0 | 9.0 | 0.00 | 0.56 | 0.00 | 99 | 1007.3 |
| 20260510030503 | 51 | 105 | 3.0 | 7.0 | 0.00 | 0.56 | 0.00 | 99 | 1007.2 |
| 20260510030402 | 51 | 113 | 3.0 | 7.0 | 0.00 | 0.56 | 0.00 | 99 | 1007.2 |
| 20260510030303 | 51 | 111 | 3.0 | 7.0 | 0.00 | 0.56 | 0.00 | 99 | 1007.3 |
| 20260510030202 | 51 | 106 | 3.0 | 7.0 | 0.00 | 0.56 | 0.00 | 99 | 1007.4 |
| 20260510030103 | 51 | 101 | 3.0 | 7.0 | 0.00 | 0.56 | 0.00 | 99 | 1007.3 |
| 20260510030003 | 51 | 105 | 3.0 | 7.0 | 0.00 | 0.56 | 0.00 | 99 | 1007.3 |
| 20260510025924 | 51 | 109 | 4.0 | 7.0 | 0.00 | 0.56 | 0.00 | 99 | 1007.4 |
| 20260510025802 | 51 | 108 | 4.0 | 7.0 | 0.00 | 0.56 | 0.00 | 99 | 1007.3 |
| 20260510025702 | 51 | 108 | 4.0 | 7.0 | 0.00 | 0.56 | 0.00 | 99 | 1007.3 |
| 20260510025603 | 51 | 111 | 4.0 | 7.0 | 0.00 | 0.56 | 0.00 | 99 | 1007.3 |
| 20260510025503 | 51 | 111 | 4.0 | 7.0 | 0.00 | 0.56 | 0.00 | 99 | 1007.3 |
| 20260510025403 | 51 | 107 | 4.0 | 7.0 | 0.00 | 0.56 | 0.00 | 99 | 1007.2 |
| 20260510025305 | 51 | 107 | 4.0 | 7.0 | 0.00 | 0.56 | 0.00 | 99 | 1007.2 |
| 20260510025224 | 51 | 105 | 4.0 | 7.0 | 0.00 | 0.56 | 0.00 | 99 | 1007.3 |
| 20260510025102 | 51 | 114 | 4.0 | 7.0 | 0.00 | 0.56 | 0.00 | 99 | 1007.4 |
| 20260510025003 | 51 | 118 | 4.0 | 7.0 | 0.00 | 0.56 | 0.00 | 99 | 1007.3 |
| 20260510024902 | 51 | 118 | 4.0 | 7.0 | 0.00 | 0.56 | 0.00 | 99 | 1007.3 |
| 20260510024803 | 51 | 118 | 4.0 | 7.0 | 0.00 | 0.56 | 0.00 | 99 | 1007.2 |
| 20260510024702 | 51 | 116 | 4.0 | 7.0 | 0.00 | 0.56 | 0.00 | 99 | 1007.4 |
| 20260510024602 | 51 | 109 | 4.0 | 7.0 | 0.00 | 0.56 | 0.00 | 99 | 1007.3 |
| 20260510024503 | 51 | 102 | 4.0 | 7.0 | 0.00 | 0.56 | 0.00 | 99 | 1007.3 |
| 20260510024403 | 51 | 96 | 4.0 | 7.0 | 0.00 | 0.56 | 0.00 | 99 | 1007.2 |
| 20260510024303 | 51 | 94 | 3.0 | 7.0 | 0.00 | 0.56 | 0.00 | 99 | 1007.4 |
| 20260510024203 | 51 | 102 | 4.0 | 7.0 | 0.00 | 0.56 | 0.00 | 99 | 1007.3 |
| 20260510024103 | 51 | 98 | 4.0 | 7.0 | 0.00 | 0.56 | 0.00 | 99 | 1007.4 |
| 20260510024003 | 51 | 101 | 4.0 | 7.0 | 0.00 | 0.56 | 0.00 | 99 | 1007.3 |
| 20260510023903 | 51 | 98 | 4.0 | 7.0 | 0.00 | 0.56 | 0.00 | 99 | 1007.5 |
| 20260510023803 | 51 | 98 | 4.0 | 7.0 | 0.00 | 0.56 | 0.00 | 99 | 1007.5 |
| 20260510023703 | 51 | 96 | 3.0 | 7.0 | 0.00 | 0.56 | 0.00 | 99 | 1007.3 |
| 20260510023624 | 51 | 100 | 3.0 | 7.0 | 0.00 | 0.56 | 0.00 | 99 | 1007.3 |
| 20260510023502 | 51 | 101 | 3.0 | 7.0 | 0.00 | 0.56 | 0.00 | 99 | 1007.4 |
| 20260510023424 | 51 | 97 | 3.0 | 7.0 | 0.00 | 0.56 | 0.00 | 99 | 1007.3 |
| 20260510023324 | 51 | 100 | 3.0 | 7.0 | 0.00 | 0.56 | 0.00 | 99 | 1007.3 |
| 20260510023202 | 51 | 98 | 3.0 | 7.0 | 0.00 | 0.56 | 0.00 | 99 | 1007.4 |
| 20260510023103 | 51 | 89 | 3.0 | 7.0 | 0.00 | 0.56 | 0.00 | 99 | 1007.2 |
| 20260510023003 | 51 | 80 | 2.0 | 6.0 | 0.00 | 0.56 | 0.00 | 99 | 1007.4 |
| 20260510022924 | 51 | 74 | 2.0 | 6.0 | 0.00 | 0.56 | 0.00 | 99 | 1007.3 |
| 20260510022803 | 51 | 70 | 2.0 | 6.0 | 0.00 | 0.56 | 0.00 | 99 | 1007.1 |
| 20260510022724 | 51 | 65 | 2.0 | 6.0 | 0.00 | 0.56 | 0.00 | 99 | 1007.4 |
| 20260510022603 | 51 | 58 | 2.0 | 6.0 | 0.00 | 0.56 | 0.00 | 99 | 1007.2 |
| 20260510022503 | 51 | 58 | 2.0 | 6.0 | 0.00 | 0.56 | 0.00 | 99 | 1007.3 |
| 20260510022403 | 51 | 59 | 1.0 | 3.0 | 0.00 | 0.56 | 0.00 | 99 | 1007.3 |
| 20260510022306 | 51 | 63 | 1.0 | 3.0 | 0.00 | 0.56 | 0.00 | 99 | 1007.4 |
| 20260510022203 | 51 | 64 | 2.0 | 4.0 | 0.00 | 0.56 | 0.00 | 99 | 1007.2 |
| 20260510022124 | 51 | 64 | 2.0 | 4.0 | 0.00 | 0.56 | 0.00 | 99 | 1007.2 |
| 20260510022002 | 51 | 66 | 2.0 | 4.0 | 0.00 | 0.56 | 0.00 | 99 | 1007.5 |
| 20260510021903 | 51 | 66 | 2.0 | 4.0 | 0.00 | 0.56 | 0.00 | 99 | 1007.4 |
| 20260510021803 | 51 | 64 | 2.0 | 4.0 | 0.00 | 0.56 | 0.00 | 99 | 1007.3 |
| 20260510021724 | 51 | 64 | 2.0 | 4.0 | 0.00 | 0.56 | 0.00 | 99 | 1007.4 |
| 20260510021603 | 51 | 67 | 2.0 | 4.0 | 0.00 | 0.56 | 0.00 | 99 | 1007.2 |
| 20260510021503 | 51 | 66 | 1.0 | 4.0 | 0.00 | 0.56 | 0.00 | 99 | 1007.4 |
| 20260510021402 | 51 | 67 | 1.0 | 4.0 | 0.00 | 0.56 | 0.00 | 99 | 1007.2 |
| 20260510021303 | 51 | 73 | 2.0 | 4.0 | 0.00 | 0.56 | 0.00 | 99 | 1007.3 |
| 20260510021203 | 51 | 69 | 1.0 | 4.0 | 0.00 | 0.56 | 0.00 | 99 | 1007.3 |
| 20260510021103 | 50 | 67 | 1.0 | 3.0 | 0.00 | 0.56 | 0.00 | 99 | 1007.2 |
| 20260510021003 | 50 | 67 | 1.0 | 3.0 | 0.00 | 0.56 | 0.00 | 99 | 1007.4 |
| 20260510020924 | 50 | 67 | 1.0 | 3.0 | 0.00 | 0.56 | 0.00 | 99 | 1007.4 |
| 20260510020824 | 50 | 67 | 1.0 | 3.0 | 0.00 | 0.56 | 0.00 | 99 | 1007.4 |
| 20260510020703 | 50 | 67 | 1.0 | 3.0 | 0.00 | 0.56 | 0.00 | 99 | 1007.4 |
| 20260510020603 | 50 | 62 | 1.0 | 3.0 | 0.00 | 0.56 | 0.00 | 99 | 1007.3 |
| 20260510020503 | 50 | 62 | 1.0 | 3.0 | 0.00 | 0.56 | 0.00 | 99 | 1007.3 |
| 20260510020403 | 50 | 63 | 1.0 | 3.0 | 0.00 | 0.56 | 0.00 | 99 | 1007.3 |
| 20260510020303 | 51 | 53 | 1.0 | 3.0 | 0.00 | 0.56 | 0.00 | 99 | 1007.4 |
| 20260510020203 | 51 | 53 | 1.0 | 3.0 | 0.00 | 0.56 | 0.00 | 99 | 1007.4 |
| 20260510020003 | 51 | 54 | 1.0 | 3.0 | 0.00 | 0.56 | 0.00 | 99 | 1007.4 |
| 20260510015903 | 51 | 57 | 2.0 | 4.0 | 0.00 | 0.56 | 0.00 | 99 | 1007.4 |
| 20260510015824 | 51 | 58 | 2.0 | 4.0 | 0.00 | 0.56 | 0.00 | 99 | 1007.4 |
| 20260510015703 | 51 | 60 | 2.0 | 4.0 | 0.00 | 0.56 | 0.00 | 99 | 1007.4 |
| 20260510015603 | 51 | 61 | 2.0 | 4.0 | 0.00 | 0.56 | 0.00 | 99 | 1007.3 |
| 20260510015503 | 51 | 61 | 2.0 | 4.0 | 0.00 | 0.56 | 0.00 | 99 | 1007.4 |
| 20260510015403 | 51 | 62 | 2.0 | 4.0 | 0.00 | 0.56 | 0.00 | 99 | 1007.4 |
| 20260510015306 | 51 | 62 | 2.0 | 4.0 | 0.00 | 0.56 | 0.00 | 99 | 1007.4 |
| 20260510015203 | 51 | 63 | 2.0 | 4.0 | 0.00 | 0.56 | 0.00 | 99 | 1007.5 |
| 20260510015124 | 51 | 62 | 2.0 | 4.0 | 0.00 | 0.56 | 0.00 | 99 | 1007.2 |
| 20260510015003 | 51 | 63 | 2.0 | 4.0 | 0.00 | 0.56 | 0.00 | 99 | 1007.4 |
| 20260510014924 | 51 | 63 | 2.0 | 4.0 | 0.00 | 0.56 | 0.00 | 99 | 1007.4 |
| 20260510014803 | 51 | 63 | 2.0 | 3.0 | 0.00 | 0.56 | 0.00 | 99 | 1007.5 |
| 20260510014703 | 51 | 65 | 2.0 | 3.0 | 0.00 | 0.56 | 0.00 | 99 | 1007.5 |
| 20260510014603 | 51 | 66 | 2.0 | 3.0 | 0.00 | 0.56 | 0.00 | 99 | 1007.6 |
| 20260510014503 | 51 | 66 | 2.0 | 3.0 | 0.00 | 0.56 | 0.00 | 99 | 1007.6 |
| 20260510014403 | 51 | 67 | 2.0 | 3.0 | 0.00 | 0.56 | 0.00 | 99 | 1007.4 |
| 20260510014324 | 51 | 69 | 2.0 | 3.0 | 0.00 | 0.56 | 0.00 | 99 | 1007.6 |
| 20260510014203 | 51 | 70 | 2.0 | 3.0 | 0.00 | 0.56 | 0.00 | 99 | 1007.6 |
| 20260510014103 | 51 | 70 | 2.0 | 3.0 | 0.00 | 0.56 | 0.00 | 99 | 1007.6 |
| 20260510014003 | 51 | 74 | 2.0 | 3.0 | 0.00 | 0.56 | 0.00 | 99 | 1007.5 |
| 20260510013903 | 51 | 74 | 2.0 | 3.0 | 0.00 | 0.56 | 0.00 | 99 | 1007.5 |
| 20260510013803 | 51 | 72 | 2.0 | 3.0 | 0.00 | 0.56 | 0.00 | 99 | 1007.4 |
| 20260510013703 | 51 | 74 | 2.0 | 3.0 | 0.00 | 0.56 | 0.00 | 99 | 1007.4 |
| 20260510013603 | 51 | 70 | 2.0 | 3.0 | 0.00 | 0.56 | 0.00 | 99 | 1007.7 |
| 20260510013503 | 51 | 69 | 2.0 | 3.0 | 0.00 | 0.56 | 0.00 | 99 | 1007.5 |
| 20260510013402 | 51 | 67 | 2.0 | 2.0 | 0.00 | 0.56 | 0.00 | 99 | 1007.5 |
| 20260510013303 | 51 | 66 | 2.0 | 2.0 | 0.00 | 0.56 | 0.00 | 99 | 1007.6 |
| 20260510013203 | 51 | 65 | 2.0 | 2.0 | 0.00 | 0.56 | 0.00 | 99 | 1007.6 |
| 20260510013124 | 51 | 65 | 2.0 | 2.0 | 0.00 | 0.56 | 0.00 | 99 | 1007.6 |
| 20260510013003 | 51 | 62 | 2.0 | 3.0 | 0.00 | 0.56 | 0.00 | 99 | 1007.6 |
| 20260510012903 | 51 | 63 | 2.0 | 3.0 | 0.00 | 0.56 | 0.00 | 99 | 1007.5 |
| 20260510012803 | 51 | 63 | 2.0 | 3.0 | 0.00 | 0.56 | 0.00 | 99 | 1007.7 |
| 20260510012703 | 51 | 60 | 2.0 | 3.0 | 0.00 | 0.56 | 0.00 | 99 | 1007.6 |
| 20260510012603 | 51 | 60 | 2.0 | 3.0 | 0.00 | 0.56 | 0.00 | 99 | 1007.6 |
| 20260510012524 | 51 | 61 | 2.0 | 3.0 | 0.00 | 0.56 | 0.00 | 99 | 1007.7 |
| 20260510012403 | 51 | 62 | 2.0 | 3.0 | 0.00 | 0.56 | 0.00 | 99 | 1007.7 |
| 20260510012306 | 51 | 70 | 2.0 | 4.0 | 0.00 | 0.56 | 0.00 | 99 | 1007.6 |
| 20260510012203 | 51 | 68 | 2.0 | 4.0 | 0.00 | 0.56 | 0.00 | 99 | 1007.6 |
| 20260510012103 | 51 | 69 | 2.0 | 4.0 | 0.00 | 0.56 | 0.00 | 99 | 1007.6 |
| 20260510012003 | 51 | 72 | 2.0 | 4.0 | 0.00 | 0.56 | 0.00 | 99 | 1007.6 |
| 20260510011903 | 51 | 76 | 2.0 | 6.0 | 0.00 | 0.56 | 0.00 | 99 | 1007.8 |
| 20260510011803 | 51 | 74 | 2.0 | 6.0 | 0.00 | 0.56 | 0.00 | 99 | 1007.6 |
| 20260510011703 | 51 | 75 | 2.0 | 6.0 | 0.00 | 0.56 | 0.00 | 99 | 1007.7 |
| 20260510011624 | 51 | 75 | 2.0 | 6.0 | 0.00 | 0.56 | 0.00 | 99 | 1007.8 |
| 20260510011503 | 51 | 75 | 2.0 | 6.0 | 0.00 | 0.56 | 0.00 | 99 | 1007.8 |
| 20260510011403 | 51 | 76 | 2.0 | 6.0 | 0.00 | 0.56 | 0.00 | 99 | 1007.7 |
| 20260510011303 | 51 | 73 | 2.0 | 6.0 | 0.00 | 0.56 | 0.00 | 99 | 1007.8 |
| 20260510011224 | 51 | 73 | 2.0 | 6.0 | 0.00 | 0.56 | 0.00 | 99 | 1007.6 |
| 20260510011124 | 51 | 73 | 2.0 | 6.0 | 0.00 | 0.56 | 0.00 | 99 | 1007.6 |
| 20260510011003 | 51 | 73 | 2.0 | 6.0 | 0.00 | 0.56 | 0.00 | 99 | 1007.8 |
| 20260510010903 | 51 | 70 | 2.0 | 3.0 | 0.00 | 0.56 | 0.00 | 99 | 1007.6 |
| 20260510010803 | 51 | 71 | 2.0 | 3.0 | 0.00 | 0.56 | 0.00 | 99 | 1007.6 |
| 20260510010703 | 51 | 70 | 2.0 | 3.0 | 0.00 | 0.56 | 0.00 | 99 | 1007.7 |
| 20260510010603 | 51 | 72 | 2.0 | 3.0 | 0.00 | 0.56 | 0.00 | 99 | 1007.8 |
| 20260510010524 | 51 | 72 | 2.0 | 3.0 | 0.00 | 0.56 | 0.00 | 99 | 1007.8 |
| 20260510010403 | 51 | 76 | 2.0 | 3.0 | 0.00 | 0.56 | 0.00 | 99 | 1007.7 |
| 20260510010303 | 51 | 74 | 2.0 | 3.0 | 0.00 | 0.56 | 0.00 | 99 | 1007.8 |
| 20260510010203 | 51 | 74 | 2.0 | 3.0 | 0.00 | 0.56 | 0.00 | 99 | 1007.8 |
| 20260510010003 | 51 | 83 | 2.0 | 4.0 | 0.00 | 0.56 | 0.00 | 99 | 1007.8 |
| 20260510005903 | 51 | 83 | 2.0 | 4.0 | 0.00 | 0.56 | 0.00 | 99 | 1007.7 |
| 20260510005803 | 51 | 82 | 2.0 | 4.0 | 0.00 | 0.56 | 0.00 | 99 | 1007.7 |
| 20260510005703 | 51 | 82 | 2.0 | 4.0 | 0.00 | 0.56 | 0.00 | 99 | 1007.7 |
| 20260510005603 | 51 | 82 | 2.0 | 4.0 | 0.00 | 0.56 | 0.00 | 99 | 1007.8 |
| 20260510005503 | 51 | 80 | 2.0 | 4.0 | 0.00 | 0.56 | 0.00 | 99 | 1007.9 |
| 20260510005403 | 51 | 76 | 2.0 | 4.0 | 0.00 | 0.56 | 0.00 | 99 | 1007.7 |
| 20260510005306 | 51 | 75 | 2.0 | 4.0 | 0.00 | 0.56 | 0.00 | 99 | 1007.7 |
| 20260510005203 | 51 | 74 | 2.0 | 4.0 | 0.00 | 0.56 | 0.00 | 99 | 1007.8 |
| 20260510005103 | 51 | 73 | 2.0 | 4.0 | 0.00 | 0.56 | 0.00 | 99 | 1007.9 |
| 20260510005004 | 51 | 66 | 2.0 | 3.0 | 0.00 | 0.56 | 0.00 | 99 | 1008.0 |
| 20260510004903 | 51 | 66 | 2.0 | 3.0 | 0.00 | 0.56 | 0.00 | 99 | 1008.0 |
| 20260510004803 | 51 | 61 | 2.0 | 3.0 | 0.00 | 0.56 | 0.00 | 99 | 1007.9 |
| 20260510004724 | 51 | 61 | 2.0 | 3.0 | 0.00 | 0.56 | 0.00 | 99 | 1007.7 |
| 20260510004603 | 51 | 60 | 2.0 | 3.0 | 0.00 | 0.56 | 0.00 | 99 | 1007.9 |
| 20260510004503 | 51 | 61 | 2.0 | 3.0 | 0.00 | 0.56 | 0.00 | 99 | 1007.9 |
| 20260510004403 | 51 | 60 | 2.0 | 3.0 | 0.00 | 0.56 | 0.00 | 99 | 1007.9 |
| 20260510004303 | 51 | 62 | 2.0 | 3.0 | 0.00 | 0.56 | 0.00 | 99 | 1007.9 |
| 20260510004203 | 51 | 66 | 2.0 | 3.0 | 0.00 | 0.56 | 0.00 | 99 | 1007.8 |
| 20260510004103 | 51 | 69 | 2.0 | 3.0 | 0.00 | 0.56 | 0.00 | 99 | 1007.7 |
| 20260510004003 | 51 | 67 | 2.0 | 3.0 | 0.00 | 0.56 | 0.00 | 99 | 1007.8 |
| 20260510003924 | 51 | 67 | 2.0 | 3.0 | 0.00 | 0.56 | 0.00 | 99 | 1007.8 |
| 20260510003803 | 51 | 69 | 2.0 | 3.0 | 0.00 | 0.56 | 0.00 | 99 | 1007.9 |
| 20260510003703 | 51 | 70 | 2.0 | 3.0 | 0.00 | 0.56 | 0.00 | 99 | 1008.0 |
| 20260510003603 | 51 | 69 | 2.0 | 3.0 | 0.00 | 0.56 | 0.00 | 99 | 1007.7 |
| 20260510003503 | 51 | 69 | 2.0 | 3.0 | 0.00 | 0.56 | 0.00 | 99 | 1007.8 |
| 20260510003403 | 51 | 72 | 2.0 | 3.0 | 0.00 | 0.56 | 0.00 | 99 | 1007.7 |
| 20260510003303 | 51 | 71 | 2.0 | 3.0 | 0.00 | 0.56 | 0.00 | 99 | 1007.8 |
| 20260510003203 | 51 | 68 | 2.0 | 3.0 | 0.00 | 0.56 | 0.00 | 99 | 1007.9 |
| 20260510003103 | 51 | 64 | 2.0 | 3.0 | 0.00 | 0.56 | 0.00 | 99 | 1007.7 |
| 20260510003003 | 51 | 63 | 2.0 | 3.0 | 0.00 | 0.56 | 0.00 | 99 | 1007.8 |
| 20260510002903 | 51 | 63 | 2.0 | 3.0 | 0.00 | 0.56 | 0.00 | 99 | 1007.8 |
| 20260510002803 | 51 | 63 | 2.0 | 3.0 | 0.00 | 0.56 | 0.00 | 99 | 1007.9 |
| 20260510002703 | 51 | 63 | 2.0 | 3.0 | 0.00 | 0.56 | 0.00 | 99 | 1008.0 |
| 20260510002603 | 51 | 63 | 2.0 | 3.0 | 0.00 | 0.56 | 0.00 | 99 | 1007.9 |
| 20260510002503 | 51 | 62 | 1.0 | 3.0 | 0.00 | 0.56 | 0.00 | 99 | 1008.1 |
| 20260510002403 | 51 | 62 | 1.0 | 3.0 | 0.00 | 0.56 | 0.00 | 99 | 1007.9 |
| 20260510002306 | 51 | 59 | 1.0 | 3.0 | 0.00 | 0.56 | 0.00 | 99 | 1007.8 |
| 20260510002203 | 51 | 57 | 1.0 | 2.0 | 0.00 | 0.56 | 0.00 | 99 | 1007.9 |
| 20260510002103 | 51 | 56 | 1.0 | 2.0 | 0.00 | 0.56 | 0.00 | 99 | 1008.0 |
| 20260510002003 | 51 | 56 | 1.0 | 2.0 | 0.00 | 0.56 | 0.00 | 99 | 1008.0 |
| 20260510001903 | 51 | 53 | 1.0 | 2.0 | 0.00 | 0.56 | 0.00 | 99 | 1008.0 |
| 20260510001803 | 51 | 55 | 1.0 | 2.0 | 0.00 | 0.56 | 0.00 | 99 | 1007.8 |
| 20260510001703 | 51 | 54 | 1.0 | 2.0 | 0.00 | 0.56 | 0.00 | 99 | 1008.0 |
| 20260510001624 | 51 | 54 | 1.0 | 2.0 | 0.00 | 0.56 | 0.00 | 99 | 1008.0 |
| 20260510001503 | 51 | 56 | 1.0 | 2.0 | 0.00 | 0.56 | 0.00 | 99 | 1008.0 |
| 20260510001403 | 51 | 57 | 1.0 | 2.0 | 0.00 | 0.56 | 0.00 | 99 | 1007.9 |
| 20260510001324 | 51 | 57 | 1.0 | 2.0 | 0.00 | 0.56 | 0.00 | 99 | 1007.9 |
| 20260510001203 | 51 | 67 | 1.0 | 4.0 | 0.00 | 0.56 | 0.00 | 99 | 1008.2 |
| 20260510001103 | 51 | 69 | 2.0 | 4.0 | 0.00 | 0.56 | 0.00 | 99 | 1008.1 |
| 20260510001003 | 51 | 69 | 2.0 | 4.0 | 0.00 | 0.56 | 0.00 | 99 | 1007.9 |
| 20260510000903 | 51 | 68 | 2.0 | 4.0 | 0.00 | 0.56 | 0.00 | 99 | 1007.8 |
| 20260510000803 | 51 | 68 | 2.0 | 4.0 | 0.00 | 0.56 | 0.00 | 99 | 1008.0 |
| 20260510000724 | 51 | 68 | 2.0 | 4.0 | 0.00 | 0.56 | 0.00 | 99 | 1007.8 |
| 20260510000624 | 51 | 69 | 2.0 | 4.0 | 0.00 | 0.56 | 0.00 | 99 | 1007.8 |
| 20260510000503 | 51 | 68 | 2.0 | 4.0 | 0.00 | 0.56 | 0.00 | 99 | 1008.0 |
| 20260510000403 | 51 | 69 | 2.0 | 4.0 | 0.00 | 0.56 | 0.00 | 99 | 1007.9 |
| 20260510000304 | 51 | 70 | 2.0 | 4.0 | 0.00 | 0.56 | 0.00 | 99 | 1007.9 |
| 20260510000226 | 51 | 67 | 2.0 | 3.0 | 0.00 | 0.56 | 0.00 | 99 | 1007.9 |
| 20260510000003 | 51 | 64 | 2.0 | 3.0 | 0.00 | 0.56 | 0.00 | 99 | 1007.9 |
| 20260509235924 | 51 | 64 | 2.0 | 3.0 | 0.00 | 0.56 | 0.00 | 99 | 1007.9 |
| 20260509235824 | 51 | 65 | 1.0 | 3.0 | 0.00 | 0.56 | 0.00 | 99 | 1007.9 |
| 20260509235703 | 51 | 68 | 2.0 | 3.0 | 0.00 | 0.56 | 0.00 | 99 | 1007.8 |
| 20260509235603 | 51 | 68 | 2.0 | 3.0 | 0.00 | 0.56 | 0.00 | 99 | 1007.9 |
| 20260509235503 | 51 | 68 | 2.0 | 3.0 | 0.00 | 0.56 | 0.00 | 99 | 1007.9 |
| 20260509235403 | 51 | 68 | 2.0 | 3.0 | 0.00 | 0.56 | 0.00 | 99 | 1007.9 |
| 20260509235306 | 51 | 67 | 1.0 | 3.0 | 0.00 | 0.56 | 0.00 | 99 | 1008.0 |
| 20260509235203 | 51 | 67 | 1.0 | 3.0 | 0.00 | 0.56 | 0.00 | 99 | 1008.0 |
| 20260509235124 | 51 | 63 | 1.0 | 3.0 | 0.00 | 0.56 | 0.00 | 99 | 1007.9 |
| 20260509235003 | 51 | 64 | 1.0 | 3.0 | 0.00 | 0.56 | 0.00 | 99 | 1007.9 |
| 20260509234903 | 51 | 64 | 1.0 | 3.0 | 0.00 | 0.56 | 0.00 | 99 | 1008.0 |
| 20260509234803 | 51 | 65 | 1.0 | 3.0 | 0.00 | 0.56 | 0.00 | 99 | 1008.0 |
| 20260509234703 | 51 | 59 | 1.0 | 3.0 | 0.00 | 0.56 | 0.00 | 99 | 1008.0 |
| 20260509234603 | 51 | 59 | 1.0 | 3.0 | 0.00 | 0.56 | 0.00 | 99 | 1008.0 |
| 20260509234503 | 51 | 58 | 1.0 | 3.0 | 0.00 | 0.56 | 0.00 | 99 | 1008.0 |
| 20260509234424 | 51 | 58 | 1.0 | 3.0 | 0.00 | 0.56 | 0.00 | 99 | 1008.0 |
| 20260509234303 | 51 | 59 | 1.0 | 3.0 | 0.00 | 0.56 | 0.00 | 99 | 1008.1 |
| 20260509234224 | 51 | 59 | 1.0 | 3.0 | 0.00 | 0.56 | 0.00 | 99 | 1008.1 |
| 20260509234103 | 51 | 56 | 1.0 | 3.0 | 0.00 | 0.56 | 0.00 | 99 | 1008.0 |
| 20260509234003 | 51 | 54 | 1.0 | 3.0 | 0.00 | 0.56 | 0.00 | 99 | 1008.1 |
| 20260509233924 | 51 | 54 | 1.0 | 3.0 | 0.00 | 0.56 | 0.00 | 99 | 1007.9 |
| 20260509233803 | 51 | 52 | 1.0 | 3.0 | 0.00 | 0.56 | 0.00 | 99 | 1007.9 |
| 20260509233703 | 51 | 52 | 1.0 | 3.0 | 0.00 | 0.56 | 0.00 | 99 | 1008.0 |
| 20260509233603 | 51 | 54 | 1.0 | 2.0 | 0.00 | 0.56 | 0.00 | 99 | 1007.9 |
| 20260509233503 | 51 | 53 | 1.0 | 2.0 | 0.00 | 0.56 | 0.00 | 99 | 1008.1 |
| 20260509233403 | 51 | 53 | 1.0 | 2.0 | 0.00 | 0.56 | 0.00 | 99 | 1008.0 |
| 20260509233303 | 51 | 53 | 1.0 | 2.0 | 0.00 | 0.56 | 0.00 | 99 | 1008.0 |
| 20260509233203 | 51 | 53 | 1.0 | 2.0 | 0.00 | 0.56 | 0.00 | 99 | 1007.9 |
| 20260509233103 | 51 | 53 | 1.0 | 2.0 | 0.00 | 0.56 | 0.00 | 99 | 1008.0 |
| 20260509233003 | 51 | 56 | 1.0 | 2.0 | 0.00 | 0.56 | 0.00 | 99 | 1008.0 |
| 20260509232903 | 51 | 56 | 1.0 | 2.0 | 0.00 | 0.56 | 0.00 | 99 | 1008.0 |
| 20260509232824 | 51 | 57 | 1.0 | 2.0 | 0.00 | 0.56 | 0.00 | 99 | 1008.0 |
| 20260509232703 | 51 | 63 | 1.0 | 3.0 | 0.00 | 0.56 | 0.00 | 99 | 1007.9 |
| 20260509232603 | 51 | 62 | 2.0 | 4.0 | 0.00 | 0.56 | 0.00 | 99 | 1007.9 |
| 20260509232524 | 51 | 62 | 2.0 | 4.0 | 0.00 | 0.56 | 0.00 | 99 | 1008.0 |
| 20260509232403 | 52 | 62 | 1.0 | 4.0 | 0.00 | 0.56 | 0.00 | 99 | 1007.9 |
| 20260509232324 | 52 | 65 | 2.0 | 4.0 | 0.00 | 0.56 | 0.00 | 99 | 1007.9 |
| 20260509232203 | 52 | 66 | 2.0 | 6.0 | 0.00 | 0.56 | 0.00 | 99 | 1008.1 |
| 20260509232103 | 52 | 71 | 2.0 | 6.0 | 0.00 | 0.56 | 0.00 | 99 | 1007.9 |
| 20260509232003 | 52 | 70 | 2.0 | 6.0 | 0.00 | 0.56 | 0.00 | 99 | 1007.8 |
| 20260509231924 | 52 | 70 | 2.0 | 6.0 | 0.00 | 0.56 | 0.00 | 99 | 1007.9 |
| 20260509231803 | 52 | 72 | 2.0 | 6.0 | 0.00 | 0.56 | 0.00 | 99 | 1008.0 |
| 20260509231703 | 52 | 68 | 2.0 | 6.0 | 0.00 | 0.56 | 0.00 | 99 | 1008.0 |
| 20260509231603 | 52 | 75 | 2.0 | 6.0 | 0.00 | 0.56 | 0.00 | 99 | 1007.9 |
| 20260509231503 | 52 | 81 | 2.0 | 6.0 | 0.00 | 0.56 | 0.00 | 99 | 1007.9 |
| 20260509231403 | 52 | 82 | 2.0 | 6.0 | 0.00 | 0.56 | 0.00 | 99 | 1007.9 |
| 20260509231324 | 52 | 82 | 2.0 | 6.0 | 0.00 | 0.56 | 0.00 | 99 | 1007.9 |
| 20260509231203 | 52 | 83 | 2.0 | 6.0 | 0.00 | 0.56 | 0.00 | 99 | 1008.0 |
| 20260509231103 | 52 | 86 | 2.0 | 6.0 | 0.00 | 0.56 | 0.00 | 99 | 1007.9 |
| 20260509231003 | 52 | 85 | 2.0 | 6.0 | 0.00 | 0.56 | 0.00 | 99 | 1008.0 |
| 20260509230903 | 52 | 87 | 2.0 | 6.0 | 0.00 | 0.56 | 0.00 | 99 | 1007.9 |
| 20260509230803 | 52 | 87 | 2.0 | 6.0 | 0.00 | 0.56 | 0.00 | 99 | 1007.9 |
| 20260509230703 | 52 | 83 | 2.0 | 6.0 | 0.00 | 0.56 | 0.00 | 99 | 1008.2 |
| 20260509230603 | 52 | 83 | 2.0 | 6.0 | 0.00 | 0.56 | 0.00 | 99 | 1008.0 |
| 20260509230503 | 52 | 77 | 2.0 | 6.0 | 0.00 | 0.56 | 0.00 | 99 | 1007.9 |
| 20260509230403 | 52 | 71 | 2.0 | 4.0 | 0.00 | 0.56 | 0.00 | 99 | 1007.8 |
| 20260509230303 | 52 | 70 | 2.0 | 4.0 | 0.00 | 0.56 | 0.00 | 99 | 1007.8 |
| 20260509230203 | 52 | 67 | 2.0 | 4.0 | 0.00 | 0.56 | 0.00 | 99 | 1007.9 |
| 20260509230003 | 51 | 61 | 2.0 | 4.0 | 0.00 | 0.56 | 0.00 | 99 | 1007.6 |
| 20260509225903 | 51 | 57 | 1.0 | 4.0 | 0.00 | 0.56 | 0.00 | 99 | 1007.9 |
| 20260509225803 | 51 | 55 | 1.0 | 4.0 | 0.00 | 0.56 | 0.00 | 99 | 1007.9 |
| 20260509225703 | 51 | 57 | 1.0 | 3.0 | 0.00 | 0.56 | 0.00 | 99 | 1008.0 |
| 20260509225603 | 51 | 57 | 1.0 | 3.0 | 0.00 | 0.56 | 0.00 | 99 | 1008.0 |
| 20260509225503 | 51 | 58 | 1.0 | 3.0 | 0.00 | 0.56 | 0.00 | 99 | 1007.8 |
| 20260509225403 | 51 | 60 | 1.0 | 2.0 | 0.00 | 0.56 | 0.00 | 99 | 1007.9 |
| 20260509225324 | 52 | 59 | 1.0 | 2.0 | 0.00 | 0.56 | 0.00 | 99 | 1007.9 |
| 20260509225203 | 52 | 56 | 0.0 | 2.0 | 0.00 | 0.56 | 0.00 | 99 | 1008.0 |
| 20260509225103 | 52 | 57 | 0.0 | 2.0 | 0.00 | 0.56 | 0.00 | 99 | 1007.9 |
| 20260509225003 | 51 | 55 | 0.0 | 2.0 | 0.00 | 0.56 | 0.00 | 99 | 1007.8 |
| 20260509224903 | 51 | 50 | 0.0 | 2.0 | 0.00 | 0.56 | 0.00 | 99 | 1007.7 |
| 20260509224824 | 51 | 0 | 0.0 | 0.0 | 0.00 | 0.56 | 0.00 | 99 | 1007.9 |
| 20260509224724 | 51 | 48 | 0.0 | 1.0 | 0.00 | 0.56 | 0.00 | 99 | 1007.9 |
| 20260509224603 | 51 | 51 | 0.0 | 1.0 | 0.00 | 0.56 | 0.00 | 99 | 1007.9 |
| 20260509224503 | 51 | 51 | 0.0 | 1.0 | 0.00 | 0.56 | 0.00 | 99 | 1007.9 |
| 20260509224403 | 51 | 51 | 0.0 | 1.0 | 0.00 | 0.56 | 0.00 | 99 | 1007.9 |
| 20260509224303 | 51 | 51 | 0.0 | 1.0 | 0.00 | 0.56 | 0.00 | 99 | 1008.0 |
| 20260509224224 | 51 | 51 | 0.0 | 1.0 | 0.00 | 0.56 | 0.00 | 99 | 1008.0 |
| 20260509224103 | 51 | 54 | 0.0 | 2.0 | 0.00 | 0.56 | 0.00 | 99 | 1007.9 |
| 20260509224024 | 51 | 54 | 0.0 | 2.0 | 0.00 | 0.56 | 0.00 | 99 | 1007.9 |
| 20260509223903 | 52 | 53 | 1.0 | 2.0 | 0.00 | 0.56 | 0.00 | 99 | 1007.9 |
| 20260509223803 | 52 | 53 | 1.0 | 2.0 | 0.00 | 0.56 | 0.00 | 99 | 1007.8 |
| 20260509223703 | 52 | 54 | 1.0 | 2.0 | 0.00 | 0.56 | 0.00 | 99 | 1007.8 |
| 20260509223603 | 52 | 55 | 1.0 | 2.0 | 0.00 | 0.56 | 0.00 | 99 | 1007.9 |
| 20260509223503 | 52 | 54 | 1.0 | 2.0 | 0.00 | 0.56 | 0.00 | 99 | 1007.8 |
| 20260509223403 | 52 | 59 | 1.0 | 3.0 | 0.00 | 0.56 | 0.00 | 99 | 1007.9 |
| 20260509223303 | 52 | 59 | 2.0 | 3.0 | 0.00 | 0.56 | 0.00 | 99 | 1007.8 |
| 20260509223203 | 52 | 59 | 2.0 | 3.0 | 0.00 | 0.56 | 0.00 | 99 | 1007.8 |
| 20260509223103 | 52 | 59 | 2.0 | 3.0 | 0.00 | 0.56 | 0.00 | 99 | 1007.9 |
| 20260509223003 | 52 | 58 | 2.0 | 3.0 | 0.00 | 0.56 | 0.00 | 99 | 1008.0 |
| 20260509222924 | 52 | 59 | 2.0 | 3.0 | 0.00 | 0.56 | 0.00 | 99 | 1007.9 |
| 20260509222803 | 52 | 63 | 2.0 | 3.0 | 0.00 | 0.56 | 0.00 | 99 | 1007.8 |
| 20260509222703 | 52 | 62 | 2.0 | 3.0 | 0.00 | 0.56 | 0.00 | 99 | 1007.9 |
| 20260509222603 | 52 | 61 | 2.0 | 3.0 | 0.00 | 0.56 | 0.00 | 99 | 1007.8 |
| 20260509222503 | 52 | 62 | 1.0 | 3.0 | 0.00 | 0.56 | 0.00 | 99 | 1007.9 |
| 20260509222403 | 52 | 58 | 1.0 | 3.0 | 0.00 | 0.56 | 0.00 | 99 | 1007.8 |
| 20260509222306 | 52 | 58 | 1.0 | 3.0 | 0.00 | 0.56 | 0.00 | 99 | 1007.8 |
| 20260509222203 | 52 | 59 | 1.0 | 3.0 | 0.00 | 0.56 | 0.00 | 99 | 1007.9 |
| 20260509222103 | 52 | 59 | 1.0 | 3.0 | 0.00 | 0.56 | 0.00 | 99 | 1007.9 |
| 20260509222003 | 52 | 59 | 1.0 | 3.0 | 0.00 | 0.56 | 0.00 | 99 | 1007.9 |
| 20260509221903 | 52 | 60 | 1.0 | 3.0 | 0.00 | 0.56 | 0.00 | 99 | 1007.9 |
| 20260509221803 | 52 | 59 | 1.0 | 3.0 | 0.00 | 0.56 | 0.00 | 99 | 1007.8 |
| 20260509221703 | 52 | 51 | 0.0 | 2.0 | 0.00 | 0.56 | 0.00 | 99 | 1007.8 |
| 20260509221603 | 52 | 51 | 0.0 | 2.0 | 0.00 | 0.56 | 0.00 | 99 | 1007.8 |
| 20260509221503 | 52 | 50 | 0.0 | 2.0 | 0.00 | 0.56 | 0.00 | 99 | 1007.9 |
| 20260509221403 | 52 | 51 | 0.0 | 2.0 | 0.00 | 0.56 | 0.00 | 99 | 1007.9 |
| 20260509221303 | 52 | 50 | 0.0 | 2.0 | 0.00 | 0.56 | 0.00 | 99 | 1007.8 |
| 20260509221203 | 52 | 50 | 0.0 | 2.0 | 0.00 | 0.56 | 0.00 | 99 | 1007.7 |
| 20260509221103 | 52 | 50 | 0.0 | 2.0 | 0.00 | 0.56 | 0.00 | 99 | 1007.8 |
| 20260509221003 | 52 | 50 | 0.0 | 2.0 | 0.00 | 0.56 | 0.00 | 99 | 1007.8 |
| 20260509220903 | 52 | 50 | 0.0 | 2.0 | 0.00 | 0.56 | 0.00 | 99 | 1007.9 |
| 20260509220803 | 52 | 50 | 0.0 | 2.0 | 0.00 | 0.56 | 0.00 | 99 | 1007.7 |
| 20260509220703 | 52 | 50 | 0.0 | 2.0 | 0.00 | 0.56 | 0.00 | 99 | 1007.8 |
| 20260509220603 | 52 | 49 | 0.0 | 1.0 | 0.00 | 0.56 | 0.00 | 99 | 1007.8 |
| 20260509220503 | 52 | 50 | 0.0 | 2.0 | 0.00 | 0.56 | 0.00 | 99 | 1007.8 |
| 20260509220403 | 52 | 50 | 0.0 | 2.0 | 0.00 | 0.56 | 0.00 | 99 | 1007.7 |
| 20260509220303 | 52 | 50 | 0.0 | 2.0 | 0.00 | 0.56 | 0.00 | 99 | 1007.7 |
| 20260509220203 | 52 | 50 | 0.0 | 2.0 | 0.00 | 0.56 | 0.00 | 99 | 1007.8 |
| 20260509220004 | 52 | 50 | 1.0 | 2.0 | 0.00 | 0.56 | 0.00 | 99 | 1007.8 |
| 20260509215903 | 52 | 50 | 1.0 | 2.0 | 0.00 | 0.56 | 0.56 | 99 | 1007.6 |
| 20260509215803 | 52 | 50 | 1.0 | 2.0 | 0.00 | 0.56 | 0.56 | 99 | 1007.6 |
| 20260509215703 | 53 | 51 | 1.0 | 2.0 | 0.00 | 0.56 | 0.56 | 99 | 1007.8 |
| 20260509215603 | 53 | 51 | 1.0 | 2.0 | 0.00 | 0.56 | 0.56 | 99 | 1007.8 |
| 20260509215524 | 53 | 51 | 1.0 | 2.0 | 0.00 | 0.56 | 0.56 | 99 | 1007.6 |
| 20260509215403 | 53 | 51 | 0.0 | 1.0 | 0.00 | 0.56 | 0.56 | 99 | 1007.8 |
| 20260509215305 | 53 | 51 | 0.0 | 1.0 | 0.00 | 0.56 | 0.56 | 99 | 1007.7 |
| 20260509215203 | 53 | 51 | 0.0 | 1.0 | 0.01 | 0.56 | 0.56 | 99 | 1007.8 |
| 20260509215103 | 53 | 53 | 0.0 | 2.0 | 0.01 | 0.56 | 0.56 | 99 | 1007.7 |
| 20260509215024 | 53 | 53 | 0.0 | 2.0 | 0.01 | 0.56 | 0.56 | 99 | 1007.7 |
| 20260509214903 | 53 | 54 | 1.0 | 2.0 | 0.01 | 0.56 | 0.56 | 99 | 1007.8 |
| 20260509214824 | 53 | 54 | 1.0 | 2.0 | 0.01 | 0.56 | 0.56 | 99 | 1007.8 |
| 20260509214703 | 53 | 55 | 1.0 | 2.0 | 0.01 | 0.56 | 0.56 | 99 | 1007.8 |
| 20260509214603 | 53 | 55 | 1.0 | 2.0 | 0.01 | 0.56 | 0.56 | 99 | 1007.7 |
| 20260509214504 | 53 | 55 | 1.0 | 2.0 | 0.01 | 0.56 | 0.56 | 99 | 1007.7 |
| 20260509214403 | 53 | 55 | 1.0 | 2.0 | 0.01 | 0.56 | 0.56 | 99 | 1007.8 |
| 20260509214303 | 53 | 55 | 1.0 | 2.0 | 0.01 | 0.56 | 0.56 | 99 | 1007.6 |
| 20260509214203 | 53 | 55 | 1.0 | 2.0 | 0.01 | 0.56 | 0.56 | 99 | 1007.9 |
| 20260509214103 | 53 | 56 | 1.0 | 2.0 | 0.01 | 0.56 | 0.56 | 99 | 1007.6 |
| 20260509214024 | 53 | 55 | 1.0 | 2.0 | 0.01 | 0.56 | 0.56 | 99 | 1007.8 |
| 20260509213924 | 53 | 56 | 1.0 | 2.0 | 0.01 | 0.56 | 0.56 | 99 | 1007.7 |
| 20260509213803 | 53 | 57 | 1.0 | 2.0 | 0.01 | 0.56 | 0.56 | 99 | 1007.8 |
| 20260509213703 | 53 | 58 | 2.0 | 2.0 | 0.01 | 0.56 | 0.56 | 99 | 1007.7 |
| 20260509213603 | 53 | 58 | 2.0 | 2.0 | 0.01 | 0.56 | 0.56 | 99 | 1007.8 |
| 20260509213503 | 53 | 58 | 2.0 | 2.0 | 0.01 | 0.56 | 0.56 | 99 | 1007.6 |
| 20260509213403 | 53 | 58 | 2.0 | 2.0 | 0.01 | 0.56 | 0.56 | 99 | 1007.8 |
| 20260509213303 | 53 | 59 | 2.0 | 2.0 | 0.01 | 0.56 | 0.56 | 99 | 1007.8 |
| 20260509213203 | 53 | 59 | 2.0 | 2.0 | 0.01 | 0.56 | 0.56 | 99 | 1007.8 |
| 20260509213103 | 53 | 60 | 2.0 | 2.0 | 0.01 | 0.56 | 0.56 | 99 | 1007.6 |
| 20260509213003 | 53 | 59 | 2.0 | 2.0 | 0.01 | 0.56 | 0.56 | 99 | 1007.8 |
| 20260509212903 | 53 | 59 | 2.0 | 2.0 | 0.01 | 0.56 | 0.56 | 99 | 1007.9 |
| 20260509212803 | 53 | 65 | 2.0 | 3.0 | 0.01 | 0.56 | 0.56 | 99 | 1007.8 |
| 20260509212703 | 53 | 64 | 2.0 | 3.0 | 0.01 | 0.56 | 0.56 | 99 | 1007.9 |
| 20260509212603 | 53 | 63 | 2.0 | 3.0 | 0.01 | 0.56 | 0.56 | 99 | 1007.9 |
| 20260509212503 | 53 | 63 | 2.0 | 3.0 | 0.01 | 0.56 | 0.56 | 99 | 1007.9 |
| 20260509212403 | 53 | 63 | 2.0 | 3.0 | 0.01 | 0.56 | 0.56 | 99 | 1008.1 |
| 20260509212305 | 53 | 63 | 1.0 | 3.0 | 0.01 | 0.56 | 0.56 | 99 | 1007.8 |
| 20260509212224 | 53 | 62 | 1.0 | 3.0 | 0.01 | 0.56 | 0.56 | 99 | 1008.0 |
| 20260509212103 | 53 | 62 | 1.0 | 3.0 | 0.01 | 0.56 | 0.56 | 99 | 1007.8 |
| 20260509212024 | 53 | 62 | 1.0 | 3.0 | 0.01 | 0.56 | 0.56 | 99 | 1007.8 |
| 20260509211924 | 53 | 61 | 1.0 | 3.0 | 0.01 | 0.56 | 0.56 | 99 | 1008.0 |
| 20260509211824 | 53 | 61 | 1.0 | 3.0 | 0.01 | 0.56 | 0.56 | 99 | 1007.9 |
| 20260509211724 | 53 | 52 | 1.0 | 2.0 | 0.01 | 0.56 | 0.56 | 99 | 1007.9 |
| 20260509211603 | 53 | 52 | 1.0 | 2.0 | 0.01 | 0.56 | 0.56 | 99 | 1007.9 |
| 20260509211503 | 53 | 53 | 1.0 | 2.0 | 0.01 | 0.56 | 0.56 | 99 | 1007.9 |
| 20260509211403 | 53 | 53 | 1.0 | 2.0 | 0.01 | 0.56 | 0.56 | 99 | 1008.0 |
| 20260509211303 | 53 | 54 | 1.0 | 2.0 | 0.01 | 0.56 | 0.56 | 99 | 1007.9 |
| 20260509211203 | 53 | 55 | 1.0 | 2.0 | 0.01 | 0.56 | 0.56 | 99 | 1007.9 |
| 20260509211103 | 53 | 55 | 1.0 | 2.0 | 0.01 | 0.56 | 0.56 | 99 | 1008.0 |
| 20260509211024 | 53 | 55 | 1.0 | 2.0 | 0.01 | 0.56 | 0.56 | 99 | 1007.7 |
| 20260509210903 | 53 | 55 | 1.0 | 3.0 | 0.01 | 0.56 | 0.56 | 99 | 1008.0 |
| 20260509210803 | 53 | 67 | 2.0 | 4.0 | 0.01 | 0.56 | 0.56 | 99 | 1007.8 |
| 20260509210703 | 53 | 66 | 2.0 | 4.0 | 0.01 | 0.56 | 0.56 | 99 | 1007.8 |
| 20260509210603 | 53 | 67 | 2.0 | 4.0 | 0.01 | 0.56 | 0.56 | 99 | 1007.7 |
| 20260509210503 | 53 | 68 | 2.0 | 4.0 | 0.01 | 0.56 | 0.56 | 99 | 1007.7 |
| 20260509210424 | 53 | 68 | 2.0 | 4.0 | 0.01 | 0.56 | 0.56 | 99 | 1007.7 |
| 20260509210303 | 53 | 68 | 2.0 | 4.0 | 0.01 | 0.56 | 0.56 | 99 | 1007.9 |
| 20260509210203 | 53 | 74 | 2.0 | 4.0 | 0.01 | 0.56 | 0.56 | 99 | 1007.8 |
| 20260509210003 | 53 | 74 | 1.0 | 4.0 | 0.01 | 0.56 | 0.56 | 99 | 1007.7 |
| 20260509205903 | 53 | 75 | 1.0 | 4.0 | 0.01 | 0.56 | 0.56 | 99 | 1007.8 |
| 20260509205803 | 53 | 77 | 1.0 | 4.0 | 0.01 | 0.56 | 0.56 | 99 | 1007.7 |
| 20260509205703 | 53 | 71 | 1.0 | 3.0 | 0.01 | 0.56 | 0.56 | 99 | 1007.8 |
| 20260509205603 | 53 | 73 | 1.0 | 3.0 | 0.01 | 0.56 | 0.56 | 99 | 1007.6 |
| 20260509205503 | 53 | 71 | 1.0 | 3.0 | 0.01 | 0.56 | 0.56 | 99 | 1007.7 |
| 20260509205403 | 53 | 70 | 1.0 | 3.0 | 0.01 | 0.56 | 0.56 | 99 | 1007.6 |
| 20260509205306 | 53 | 70 | 1.0 | 3.0 | 0.01 | 0.56 | 0.56 | 99 | 1007.6 |
| 20260509205203 | 53 | 69 | 1.0 | 3.0 | 0.00 | 0.55 | 0.55 | 99 | 1007.5 |
| 20260509205103 | 53 | 61 | 1.0 | 3.0 | 0.00 | 0.55 | 0.55 | 99 | 1007.7 |
| 20260509205003 | 53 | 61 | 1.0 | 3.0 | 0.00 | 0.55 | 0.55 | 99 | 1007.7 |
| 20260509204903 | 53 | 62 | 1.0 | 3.0 | 0.00 | 0.55 | 0.55 | 99 | 1007.7 |
| 20260509204804 | 53 | 62 | 1.0 | 3.0 | 0.00 | 0.55 | 0.55 | 99 | 1007.7 |
| 20260509204703 | 53 | 56 | 1.0 | 3.0 | 0.00 | 0.55 | 0.55 | 99 | 1007.6 |
| 20260509204603 | 53 | 50 | 1.0 | 3.0 | 0.00 | 0.55 | 0.55 | 99 | 1007.5 |
| 20260509204503 | 53 | 50 | 1.0 | 3.0 | 0.00 | 0.55 | 0.55 | 99 | 1007.5 |
| 20260509204403 | 53 | 51 | 0.0 | 2.0 | 0.00 | 0.55 | 0.55 | 99 | 1007.6 |
| 20260509204303 | 53 | 52 | 0.0 | 2.0 | 0.00 | 0.55 | 0.55 | 99 | 1007.6 |
| 20260509204203 | 53 | 58 | 1.0 | 3.0 | 0.00 | 0.55 | 0.55 | 99 | 1007.6 |
| 20260509204103 | 53 | 71 | 1.0 | 3.0 | 0.00 | 0.55 | 0.55 | 99 | 1007.6 |
| 20260509204003 | 53 | 72 | 1.0 | 3.0 | 0.00 | 0.55 | 0.55 | 99 | 1007.6 |
| 20260509203903 | 53 | 73 | 1.0 | 3.0 | 0.00 | 0.55 | 0.55 | 99 | 1007.4 |
| 20260509203803 | 53 | 71 | 1.0 | 3.0 | 0.00 | 0.55 | 0.55 | 99 | 1007.4 |
| 20260509203703 | 53 | 69 | 1.0 | 3.0 | 0.00 | 0.55 | 0.55 | 99 | 1007.3 |
| 20260509203603 | 53 | 68 | 1.0 | 3.0 | 0.00 | 0.55 | 0.55 | 99 | 1007.5 |
| 20260509203503 | 53 | 68 | 1.0 | 3.0 | 0.00 | 0.55 | 0.55 | 99 | 1007.3 |
| 20260509203403 | 53 | 68 | 1.0 | 3.0 | 0.00 | 0.55 | 0.55 | 99 | 1007.3 |
| 20260509203324 | 53 | 69 | 1.0 | 3.0 | 0.00 | 0.55 | 0.55 | 99 | 1007.4 |
| 20260509203203 | 53 | 65 | 1.0 | 3.0 | 0.00 | 0.55 | 0.55 | 99 | 1007.4 |
| 20260509203103 | 53 | 58 | 1.0 | 3.0 | 0.00 | 0.55 | 0.55 | 99 | 1007.4 |
| 20260509203003 | 53 | 57 | 1.0 | 3.0 | 0.00 | 0.55 | 0.55 | 99 | 1007.4 |
| 20260509202924 | 53 | 57 | 1.0 | 3.0 | 0.00 | 0.55 | 0.55 | 99 | 1007.4 |
| 20260509202803 | 53 | 54 | 1.0 | 3.0 | 0.00 | 0.55 | 0.55 | 99 | 1007.2 |
| 20260509202703 | 53 | 56 | 1.0 | 3.0 | 0.00 | 0.55 | 0.55 | 99 | 1007.3 |
| 20260509202603 | 53 | 57 | 1.0 | 3.0 | 0.00 | 0.55 | 0.55 | 99 | 1007.4 |
| 20260509202524 | 53 | 57 | 1.0 | 3.0 | 0.00 | 0.55 | 0.55 | 99 | 1007.4 |
| 20260509202403 | 53 | 63 | 1.0 | 3.0 | 0.00 | 0.55 | 0.55 | 99 | 1007.2 |
| 20260509202306 | 53 | 62 | 1.0 | 3.0 | 0.00 | 0.55 | 0.55 | 99 | 1007.4 |
| 20260509202203 | 53 | 62 | 1.0 | 3.0 | 0.00 | 0.55 | 0.55 | 99 | 1007.3 |
| 20260509202124 | 53 | 63 | 1.0 | 3.0 | 0.00 | 0.55 | 0.55 | 99 | 1007.2 |
| 20260509202003 | 53 | 74 | 2.0 | 4.0 | 0.00 | 0.55 | 0.55 | 99 | 1007.3 |
| 20260509201903 | 53 | 75 | 1.0 | 4.0 | 0.00 | 0.55 | 0.55 | 99 | 1007.2 |
| 20260509201824 | 53 | 75 | 1.0 | 4.0 | 0.00 | 0.55 | 0.55 | 99 | 1007.1 |
| 20260509201703 | 53 | 75 | 1.0 | 4.0 | 0.00 | 0.55 | 0.55 | 99 | 1007.2 |
| 20260509201603 | 53 | 73 | 1.0 | 4.0 | 0.00 | 0.55 | 0.55 | 99 | 1007.2 |
| 20260509201503 | 53 | 77 | 1.0 | 4.0 | 0.00 | 0.55 | 0.55 | 99 | 1007.2 |
| 20260509201403 | 53 | 73 | 1.0 | 4.0 | 0.00 | 0.55 | 0.55 | 99 | 1007.2 |
| 20260509201303 | 53 | 74 | 1.0 | 4.0 | 0.00 | 0.55 | 0.55 | 99 | 1007.3 |
| 20260509201203 | 53 | 74 | 2.0 | 4.0 | 0.00 | 0.55 | 0.55 | 99 | 1007.1 |
| 20260509201103 | 53 | 75 | 1.0 | 4.0 | 0.00 | 0.55 | 0.55 | 99 | 1007.2 |
| 20260509201003 | 53 | 63 | 1.0 | 3.0 | 0.00 | 0.55 | 0.55 | 99 | 1007.1 |
| 20260509200903 | 53 | 64 | 1.0 | 3.0 | 0.01 | 0.55 | 0.55 | 99 | 1007.3 |
| 20260509200803 | 53 | 64 | 1.0 | 3.0 | 0.01 | 0.55 | 0.55 | 99 | 1007.1 |
| 20260509200703 | 54 | 64 | 1.0 | 3.0 | 0.01 | 0.55 | 0.55 | 99 | 1007.3 |
| 20260509200603 | 54 | 64 | 1.0 | 3.0 | 0.01 | 0.55 | 0.55 | 99 | 1007.1 |
| 20260509200503 | 54 | 64 | 1.0 | 3.0 | 0.01 | 0.55 | 0.55 | 99 | 1007.1 |
| 20260509200424 | 54 | 57 | 1.0 | 3.0 | 0.01 | 0.55 | 0.55 | 99 | 1007.1 |
| 20260509200324 | 54 | 56 | 1.0 | 3.0 | 0.01 | 0.55 | 0.55 | 99 | 1007.0 |
| 20260509200203 | 54 | 56 | 1.0 | 3.0 | 0.01 | 0.55 | 0.55 | 99 | 1007.1 |
| 20260509200003 | 54 | 51 | 0.0 | 2.0 | 0.01 | 0.55 | 0.55 | 99 | 1007.0 |
| 20260509195903 | 54 | 51 | 0.0 | 2.0 | 0.02 | 0.55 | 0.55 | 99 | 1007.1 |
| 20260509195824 | 54 | 51 | 0.0 | 2.0 | 0.02 | 0.55 | 0.55 | 99 | 1006.8 |
| 20260509195724 | 54 | 53 | 1.0 | 2.0 | 0.02 | 0.55 | 0.55 | 99 | 1006.9 |
| 20260509195624 | 54 | 53 | 1.0 | 2.0 | 0.02 | 0.55 | 0.55 | 99 | 1006.9 |
| 20260509195503 | 54 | 54 | 1.0 | 2.0 | 0.02 | 0.55 | 0.55 | 99 | 1006.9 |
| 20260509195403 | 54 | 54 | 1.0 | 2.0 | 0.02 | 0.55 | 0.55 | 99 | 1007.2 |
| 20260509195306 | 54 | 54 | 1.0 | 2.0 | 0.02 | 0.55 | 0.55 | 99 | 1007.2 |
| 20260509195203 | 54 | 54 | 1.0 | 2.0 | 0.02 | 0.55 | 0.55 | 99 | 1006.8 |
| 20260509195103 | 54 | 54 | 1.0 | 2.0 | 0.02 | 0.55 | 0.55 | 99 | 1007.1 |
| 20260509195003 | 54 | 54 | 1.0 | 2.0 | 0.02 | 0.55 | 0.55 | 99 | 1007.0 |
| 20260509194903 | 54 | 54 | 1.0 | 2.0 | 0.02 | 0.55 | 0.55 | 99 | 1006.9 |
| 20260509194803 | 54 | 53 | 1.0 | 2.0 | 0.03 | 0.55 | 0.55 | 99 | 1007.1 |
| 20260509194724 | 54 | 54 | 0.0 | 2.0 | 0.03 | 0.55 | 0.55 | 99 | 1007.1 |
| 20260509194603 | 54 | 50 | 0.0 | 2.0 | 0.03 | 0.55 | 0.55 | 99 | 1007.2 |
| 20260509194503 | 54 | 50 | 0.0 | 2.0 | 0.03 | 0.55 | 0.55 | 99 | 1007.0 |
| 20260509194403 | 54 | 47 | 0.0 | 1.0 | 0.03 | 0.55 | 0.55 | 99 | 1007.0 |
| 20260509194303 | 54 | 47 | 0.0 | 1.0 | 0.03 | 0.55 | 0.55 | 99 | 1006.9 |
| 20260509194203 | 54 | 47 | 0.0 | 1.0 | 0.03 | 0.55 | 0.55 | 99 | 1007.0 |
| 20260509194103 | 54 | 47 | 0.0 | 1.0 | 0.03 | 0.55 | 0.55 | 99 | 1006.8 |
| 20260509194003 | 54 | 47 | 0.0 | 1.0 | 0.03 | 0.55 | 0.55 | 99 | 1006.9 |
| 20260509193903 | 54 | 47 | 0.0 | 1.0 | 0.04 | 0.55 | 0.55 | 99 | 1006.9 |
| 20260509193803 | 54 | 47 | 0.0 | 1.0 | 0.04 | 0.55 | 0.55 | 99 | 1006.8 |
| 20260509193703 | 54 | 47 | 0.0 | 1.0 | 0.04 | 0.55 | 0.55 | 99 | 1006.8 |
| 20260509193603 | 54 | 47 | 0.0 | 1.0 | 0.04 | 0.55 | 0.55 | 99 | 1006.6 |
| 20260509193503 | 54 | 47 | 0.0 | 1.0 | 0.04 | 0.55 | 0.55 | 99 | 1006.7 |
| 20260509193403 | 54 | 47 | 0.0 | 1.0 | 0.04 | 0.55 | 0.55 | 99 | 1006.7 |
| 20260509193303 | 54 | 47 | 0.0 | 1.0 | 0.04 | 0.55 | 0.55 | 99 | 1006.7 |
| 20260509193203 | 54 | 47 | 0.0 | 1.0 | 0.04 | 0.55 | 0.55 | 99 | 1006.5 |
| 20260509193124 | 54 | 47 | 0.0 | 1.0 | 0.04 | 0.55 | 0.55 | 99 | 1006.6 |
| 20260509193003 | 54 | 47 | 0.0 | 1.0 | 0.05 | 0.55 | 0.55 | 99 | 1006.8 |
| 20260509192924 | 54 | 47 | 0.0 | 1.0 | 0.05 | 0.55 | 0.55 | 99 | 1006.7 |
| 20260509192803 | 54 | 47 | 0.0 | 1.0 | 0.05 | 0.55 | 0.55 | 99 | 1006.7 |
| 20260509192703 | 54 | 47 | 0.0 | 1.0 | 0.05 | 0.55 | 0.55 | 99 | 1006.7 |
| 20260509192624 | 54 | 47 | 0.0 | 1.0 | 0.05 | 0.55 | 0.55 | 99 | 1006.7 |
| 20260509192503 | 54 | 47 | 0.0 | 1.0 | 0.05 | 0.55 | 0.55 | 99 | 1006.7 |
| 20260509192424 | 54 | 47 | 0.0 | 1.0 | 0.05 | 0.55 | 0.55 | 99 | 1006.7 |
| 20260509192306 | 54 | 47 | 0.0 | 1.0 | 0.05 | 0.55 | 0.55 | 99 | 1006.7 |
| 20260509192203 | 54 | 47 | 0.0 | 1.0 | 0.05 | 0.55 | 0.55 | 99 | 1006.7 |
| 20260509192103 | 54 | 47 | 0.0 | 1.0 | 0.06 | 0.55 | 0.55 | 99 | 1006.6 |
| 20260509192024 | 54 | 47 | 0.0 | 1.0 | 0.06 | 0.55 | 0.55 | 99 | 1006.6 |
| 20260509191903 | 54 | 47 | 0.0 | 1.0 | 0.06 | 0.55 | 0.55 | 99 | 1006.6 |
| 20260509191803 | 54 | 47 | 0.0 | 1.0 | 0.06 | 0.55 | 0.55 | 99 | 1006.6 |
| 20260509191703 | 54 | 0 | 0.0 | 0.0 | 0.07 | 0.55 | 0.55 | 99 | 1006.5 |
| 20260509191603 | 54 | 0 | 0.0 | 0.0 | 0.07 | 0.55 | 0.55 | 99 | 1006.6 |
| 20260509191524 | 54 | 0 | 0.0 | 0.0 | 0.07 | 0.55 | 0.55 | 99 | 1006.7 |
| 20260509191403 | 54 | 57 | 0.0 | 2.0 | 0.08 | 0.55 | 0.55 | 99 | 1006.5 |
| 20260509191303 | 54 | 53 | 0.0 | 2.0 | 0.08 | 0.55 | 0.55 | 99 | 1006.6 |
| 20260509191203 | 54 | 53 | 0.0 | 2.0 | 0.08 | 0.55 | 0.55 | 99 | 1006.6 |
| 20260509191103 | 54 | 53 | 0.0 | 2.0 | 0.09 | 0.55 | 0.55 | 99 | 1006.5 |
| 20260509191003 | 54 | 54 | 0.0 | 2.0 | 0.09 | 0.55 | 0.55 | 99 | 1006.7 |
| 20260509190903 | 54 | 54 | 0.0 | 2.0 | 0.08 | 0.54 | 0.54 | 99 | 1006.4 |
| 20260509190803 | 54 | 54 | 0.0 | 2.0 | 0.08 | 0.54 | 0.54 | 99 | 1006.5 |
| 20260509190703 | 54 | 53 | 1.0 | 2.0 | 0.08 | 0.54 | 0.54 | 99 | 1006.7 |
| 20260509190624 | 54 | 53 | 1.0 | 2.0 | 0.08 | 0.54 | 0.54 | 99 | 1006.7 |
| 20260509190503 | 54 | 53 | 1.0 | 2.0 | 0.09 | 0.54 | 0.54 | 99 | 1006.6 |
| 20260509190403 | 54 | 53 | 1.0 | 2.0 | 0.09 | 0.54 | 0.54 | 99 | 1006.7 |
| 20260509190303 | 54 | 53 | 1.0 | 2.0 | 0.09 | 0.54 | 0.54 | 99 | 1006.6 |
| 20260509190203 | 54 | 53 | 1.0 | 2.0 | 0.09 | 0.54 | 0.54 | 99 | 1006.5 |
| 20260509190004 | 54 | 53 | 1.0 | 2.0 | 0.11 | 0.54 | 0.54 | 99 | 1006.5 |
| 20260509185903 | 54 | 53 | 0.0 | 1.0 | 0.10 | 0.53 | 0.53 | 99 | 1006.7 |
| 20260509185803 | 54 | 53 | 0.0 | 1.0 | 0.10 | 0.53 | 0.53 | 99 | 1006.4 |
| 20260509185703 | 54 | 53 | 0.0 | 1.0 | 0.10 | 0.53 | 0.53 | 99 | 1006.5 |
| 20260509185603 | 54 | 53 | 0.0 | 1.0 | 0.10 | 0.53 | 0.53 | 99 | 1006.5 |
| 20260509185503 | 54 | 52 | 0.0 | 1.0 | 0.12 | 0.53 | 0.53 | 99 | 1006.4 |
| 20260509185403 | 54 | 52 | 0.0 | 1.0 | 0.12 | 0.53 | 0.53 | 99 | 1006.5 |
| 20260509185306 | 54 | 52 | 0.0 | 1.0 | 0.12 | 0.53 | 0.53 | 99 | 1006.4 |
| 20260509185203 | 54 | 52 | 0.0 | 1.0 | 0.12 | 0.53 | 0.53 | 99 | 1006.6 |
| 20260509185103 | 54 | 0 | 0.0 | 0.0 | 0.12 | 0.53 | 0.53 | 99 | 1006.4 |
| 20260509185003 | 54 | 0 | 0.0 | 0.0 | 0.15 | 0.53 | 0.53 | 99 | 1006.5 |
| 20260509184903 | 54 | 0 | 0.0 | 0.0 | 0.15 | 0.53 | 0.53 | 99 | 1006.4 |
| 20260509184803 | 54 | 0 | 0.0 | 0.0 | 0.14 | 0.52 | 0.52 | 99 | 1006.6 |
| 20260509184703 | 54 | 0 | 0.0 | 0.0 | 0.14 | 0.52 | 0.52 | 99 | 1006.4 |
| 20260509184603 | 54 | 0 | 0.0 | 0.0 | 0.14 | 0.52 | 0.52 | 99 | 1006.5 |
| 20260509184503 | 54 | 0 | 0.0 | 0.0 | 0.19 | 0.52 | 0.52 | 99 | 1006.6 |
| 20260509184403 | 54 | 0 | 0.0 | 0.0 | 0.19 | 0.52 | 0.52 | 99 | 1006.4 |
| 20260509184303 | 54 | 0 | 0.0 | 0.0 | 0.19 | 0.52 | 0.52 | 99 | 1006.4 |
| 20260509184203 | 54 | 0 | 0.0 | 0.0 | 0.19 | 0.52 | 0.52 | 99 | 1006.6 |
| 20260509184104 | 54 | 0 | 0.0 | 0.0 | 0.26 | 0.52 | 0.52 | 99 | 1006.6 |
| 20260509184003 | 54 | 0 | 0.0 | 0.0 | 0.30 | 0.52 | 0.52 | 99 | 1006.3 |
| 20260509183903 | 54 | 0 | 0.0 | 0.0 | 0.34 | 0.51 | 0.51 | 99 | 1006.5 |
| 20260509183803 | 54 | 0 | 0.0 | 0.0 | 0.40 | 0.51 | 0.51 | 99 | 1006.6 |
| 20260509183703 | 54 | 0 | 0.0 | 0.0 | 0.42 | 0.51 | 0.51 | 99 | 1006.4 |
| 20260509183603 | 54 | 0 | 0.0 | 0.0 | 0.42 | 0.51 | 0.51 | 99 | 1006.5 |
| 20260509183503 | 54 | 0 | 0.0 | 0.0 | 0.42 | 0.51 | 0.51 | 99 | 1006.4 |
| 20260509183403 | 54 | 0 | 0.0 | 0.0 | 0.42 | 0.51 | 0.51 | 99 | 1006.4 |
| 20260509183303 | 54 | 0 | 0.0 | 0.0 | 0.42 | 0.51 | 0.51 | 99 | 1006.3 |
| 20260509183203 | 54 | 0 | 0.0 | 0.0 | 0.42 | 0.51 | 0.51 | 99 | 1006.4 |
| 20260509183124 | 54 | 0 | 0.0 | 0.0 | 0.42 | 0.51 | 0.51 | 99 | 1006.3 |
| 20260509183024 | 54 | 0 | 0.0 | 0.0 | 0.41 | 0.50 | 0.50 | 99 | 1006.4 |
| 20260509182903 | 54 | 0 | 0.0 | 0.0 | 0.41 | 0.50 | 0.50 | 99 | 1006.3 |
| 20260509182803 | 54 | 0 | 0.0 | 0.0 | 0.41 | 0.50 | 0.50 | 99 | 1006.3 |
| 20260509182703 | 54 | 0 | 0.0 | 0.0 | 0.41 | 0.50 | 0.50 | 99 | 1006.2 |
| 20260509182603 | 54 | 0 | 0.0 | 0.0 | 0.41 | 0.50 | 0.50 | 99 | 1006.2 |
| 20260509182503 | 54 | 0 | 0.0 | 0.0 | 0.41 | 0.50 | 0.50 | 99 | 1006.2 |
| 20260509182403 | 54 | 0 | 0.0 | 0.0 | 0.41 | 0.50 | 0.50 | 99 | 1006.2 |
| 20260509182306 | 54 | 56 | 0.0 | 1.0 | 0.41 | 0.50 | 0.50 | 99 | 1006.3 |
| 20260509182203 | 54 | 57 | 0.0 | 2.0 | 0.41 | 0.50 | 0.50 | 99 | 1006.2 |
| 20260509182103 | 54 | 57 | 0.0 | 2.0 | 0.40 | 0.49 | 0.49 | 99 | 1006.2 |
| 20260509182003 | 54 | 55 | 1.0 | 4.0 | 0.40 | 0.49 | 0.49 | 99 | 1006.1 |
| 20260509181903 | 54 | 55 | 1.0 | 4.0 | 0.40 | 0.49 | 0.49 | 99 | 1006.2 |
| 20260509181803 | 54 | 55 | 1.0 | 4.0 | 0.40 | 0.49 | 0.49 | 99 | 1006.3 |
| 20260509181703 | 54 | 55 | 1.0 | 4.0 | 0.39 | 0.48 | 0.48 | 99 | 1006.3 |
| 20260509181603 | 54 | 55 | 1.0 | 4.0 | 0.39 | 0.48 | 0.48 | 99 | 1006.2 |
| 20260509181503 | 54 | 58 | 1.0 | 4.0 | 0.39 | 0.48 | 0.48 | 99 | 1006.3 |
| 20260509181403 | 54 | 58 | 2.0 | 4.0 | 0.38 | 0.47 | 0.47 | 99 | 1006.2 |
| 20260509181303 | 54 | 58 | 2.0 | 4.0 | 0.38 | 0.47 | 0.47 | 99 | 1006.2 |
| 20260509181203 | 54 | 58 | 2.0 | 4.0 | 0.38 | 0.47 | 0.47 | 99 | 1006.3 |
| 20260509181103 | 54 | 58 | 2.0 | 4.0 | 0.38 | 0.46 | 0.46 | 99 | 1006.2 |
| 20260509181003 | 54 | 73 | 2.0 | 7.0 | 0.39 | 0.46 | 0.46 | 99 | 1006.2 |